GFSNW_850_dewp_204.txt.gz
Dewpoint
-6 -7 -10 -13 -14 -12 -8 -3 -1 2 3 1 0 -1 -1 1 0 -0 -2 -2 -2 -2 -3 -3 -3 -4 -4 -3 -2 -1 -1 -1 0 -3 -4 -3 -3 -2 -1 1 3 2 2 0
-9 -11 -13 -15 -15 -10 -7 1 1 1 2 1 0 -1 0 0 -0 -1 0 -0 -2 -3 -2 -2 -2 -2 -3 -3 -3 -3 -3 -2 -1 -3 -1 -0 0 0 -1 -1 1 2 2 -2
-10 -14 -15 -14 -15 -9 -6 0 -1 -1 1 -1 -1 0 -1 -0 -0 -0 -1 -1 -2 -1 -1 -2 -1 -1 -3 -3 -3 -3 -3 -2 -2 -2 -4 -4 -2 -3 -2 -1 1 0 -1 -3
-7 -6 -12 -13 -15 -13 -5 -1 -0 -0 -0 -1 1 0 -2 -1 -1 -1 -1 -1 -1 -0 0 -1 -1 -2 -2 -3 -3 -2 -2 0 -0 -1 -2 -2 -2 -2 -2 -1 -2 -0 -3 -3
-4 -4 -6 -14 -11 -14 -5 -1 -0 -1 -2 -2 -0 -1 -2 -0 -0 0 0 0 -0 -1 0 -0 1 -1 -1 -1 -3 -3 -3 -0 -1 0 -3 -3 -2 -3 -3 -3 -3 -3 -2 -2
-3 -4 -5 -10 -9 -11 -4 -3 -3 -2 -4 -3 -1 -1 0 1 0 0 0 0 -1 -0 -1 -2 -3 -4 -5 -5 -3 -2 -2 -1 -0 0 -2 -2 -4 -6 -5 -4 -4 -3 -2 -5
-3 -4 -4 -5 -6 -10 -6 -3 -2 -2 -5 -4 -6 -3 -4 -5 -5 -4 -5 -6 -6 -4 -3 -6 -8 -8 -7 -7 -7 -6 -3 -1 -0 2 -2 -0 -8 -8 -7 -6 -6 -5 -5 -6
-2 -3 -4 -5 -6 -6 -5 -3 -3 -4 -4 -4 -5 -5 -6 -6 -6 -6 -6 -7 -7 -6 -5 -6 -10 -10 -6 -5 -4 -3 -4 -3 -1 1 -1 -4 -6 -8 -8 -8 -7 -8 -7 -8
-3 -4 -5 -6 -10 -7 -4 -3 -2 -3 -3 -5 -4 -4 -4 -5 -5 -5 -5 -6 -7 -4 -4 -4 -6 -9 -5 -5 -2 -4 -3 -2 -1 -1 1 -2 -7 -8 -9 -8 -5 -7 -7 -7
-6 -6 -7 -6 -7 -6 -3 -2 -2 -1 -2 -2 -2 -4 -4 -4 -4 -5 -5 -5 -6 -5 -3 -3 -4 -5 -4 -5 -2 -0 -0 -1 0 -0 -0 -2 -5 -6 -6 -4 -4 -7 -6 -6
-4 -4 -4 -3 -3 -3 -2 -2 -3 -2 -2 -3 -3 -3 -2 -3 -3 -4 -6 -7 -6 -4 -3 -3 -4 -3 -4 -2 -4 -2 -1 0 -0 -0 1 1 -5 -6 -4 -5 -6 -6 -6 -6
-4 -4 -4 -4 -3 -3 -4 -3 -3 -3 -3 -4 -5 -5 -4 -4 -4 -4 -5 -6 -6 -5 -3 -1 -4 -4 -7 -4 0 -5 -2 -3 -2 -2 -3 -5 -5 -6 -6 -5 -5 -5 -5 -5
-10 -12 -14 -14 -12 -10 -11 -11 -7 -4 -4 -5 -5 -6 -9 -11 -8 -5 -4 -6 -4 -5 -6 -6 -6 -4 -7 -5 -5 -1 -3 -5 -4 -4 -5 -5 -6 -6 -5 -4 -4 -5 -6 -6
-14 -17 -17 -16 -15 -15 -19 -16 -10 -5 -4 -6 -10 -11 -11 -13 -11 -8 -7 -6 -5 -4 -4 -4 -3 -4 -9 -8 -9 -8 -9 -8 -7 -6 -8 -9 -6 -6 -6 -5 -4 -5 -6 -6
-17 -18 -21 -22 -20 -18 -20 -16 -15 -8 -6 -7 -8 -9 -18 -14 -13 -11 -10 -9 -4 -4 -5 -5 -4 -4 -4 -6 -7 -6 -8 -8 -8 -10 -15 -14 -11 -8 -6 -5 -5 -7 -7 -6
-20 -23 -22 -16 -13 -7 -6 -10 -10 -11 -10 -5 -6 -8 -14 -15 -7 -4 -7 -6 -5 -4 -5 -6 -6 -6 -6 -5 -7 -11 -11 -9 -9 -10 -11 -11 -11 -10 -9 -9 -11 -7 -7 -8
-22 -21 -18 -15 -9 -5 -5 -10 -10 -6 -6 -7 -7 -7 -14 -13 -12 -9 -5 -6 -5 -5 -5 -5 -6 -7 -6 -4 -4 -8 -9 -9 -9 -9 -9 -8 -8 -8 -8 -7 -7 -6 -4 -6
-20 -20 -20 -15 -13 -9 -9 -11 -7 -5 -6 -6 -6 -7 -9 -11 -7 -7 -8 -6 -5 -4 -6 -7 -7 -7 -6 -4 -9 -9 -9 -9 -9 -8 -7 -7 -7 -7 -7 -7 -7 -7 -8 -8
-20 -19 -19 -19 -17 -13 -10 -7 -6 -6 -6 -5 -6 -7 -8 -12 -7 -6 -5 -6 -5 -6 -5 -7 -7 -7 -3 -7 -9 -8 -7 -7 -7 -7 -7 -7 -7 -7 -7 -7 -7 -7 -7 -7
-17 -18 -18 -16 -14 -10 -8 -11 -8 -6 -6 -6 -6 -7 -7 -10 -9 -8 -6 -5 -4 -3 -5 -5 -3 -5 -8 -8 -7 -7 -6 -6 -6 -5 -5 -6 -6 -6 -6 -6 -7 -6 -7 -6
-15 -16 -13 -11 -7 -8 -9 -9 -9 -8 -6 -5 -5 -5 -6 -6 -6 -5 -6 -5 -4 -1 -3 -3 -2 -3 -7 -7 -7 -7 -7 -6 -6 -6 -7 -6 -5 -5 -6 -6 -6 -6 -7 -7
-12 -10 -7 -7 -7 -7 -7 -8 -8 -7 -5 -4 -4 -7 -7 -5 -5 -5 -5 -4 -4 -3 -3 -2 -2 -5 -7 -7 -7 -7 -7 -7 -7 -6 -6 -7 -6 -5 -5 -5 -6 -6 -6 -6
-8 -10 -9 -8 -9 -8 -7 -8 -6 -5 -6 -5 -7 -7 -7 -5 -5 -4 -4 -3 -3 -4 -1 -2 -4 -6 -8 -8 -8 -8 -8 -7 -7 -7 -7 -6 -5 -5 -4 -4 -5 -6 -6 -5
-12 -9 -10 -10 -10 -9 -9 -7 -7 -7 -7 -7 -7 -7 -6 -4 -4 -4 -2 -3 -2 -0 -0 -3 -6 -8 -8 -8 -8 -8 -9 -8 -8 -7 -6 -4 -4 -4 -4 -5 -5 -5 -5 -5
-13 -9 -10 -10 -10 -8 -7 -8 -8 -8 -8 -8 -8 -8 -7 -6 -4 -2 -2 -0 -1 -5 -5 -6 -8 -8 -9 -9 -9 -9 -9 -9 -8 -8 -6 -5 -4 -4 -5 -4 -4 -4 -3 -3
-10 -8 -9 -9 -8 -9 -9 -9 -8 -8 -8 -9 -8 -8 -7 -6 -3 -3 -5 -4 -5 -6 -7 -8 -9 -9 -9 -9 -9 -9 -9 -9 -9 -8 -7 -6 -6 -5 -5 -4 -4 -4 -4 -4
-9 -8 -8 -8 -8 -8 -8 -8 -8 -8 -9 -9 -7 -7 -7 -5 -4 -5 -6 -6 -7 -8 -8 -9 -9 -9 -9 -9 -9 -9 -9 -9 -9 -9 -8 -8 -8 -7 -5 -6 -6 -5 -5 -5

GFSNW_850_dewp_210.txt.gz
Dewpoint
-21 -26 -30 -31 -33 -33 -19 -3 1 0 -2 3 -2 1 -1 -1 -1 -2 -2 -2 -3 -3 -3 -3 -4 -6 -2 -3 -3 -1 -2 -1 0 -2 -4 -5 -4 -3 -3 1 1 2 2 1
-18 -22 -28 -31 -29 -28 -20 -1 -2 -2 -3 1 1 -1 -2 -1 -2 -2 -2 -1 -2 -1 -1 -2 -4 -3 -3 -3 -3 -1 -2 -1 1 -0 -0 -1 -1 -3 -3 -2 -2 1 1 1
-18 -18 -23 -24 -25 -26 -16 -0 -0 -1 -1 -2 -2 -2 -2 -2 -1 -2 -2 -2 -2 -2 -2 -4 -2 -3 -2 -3 -3 -2 -2 -1 -1 1 -1 -2 -1 -2 -2 -2 0 -0 -0 -1
-19 -18 -18 -16 -23 -23 -14 -1 -1 -1 -1 -1 -2 -2 -2 -2 -2 -2 -2 -1 -0 -0 1 -1 -1 -0 -1 -3 -3 -3 -1 1 -1 -1 -2 -2 -1 -1 -1 -1 -1 0 -2 -3
-16 -14 -11 -12 -19 -21 -8 0 -1 -2 -3 -4 -4 -2 -4 -2 -2 -3 -2 0 -1 -2 1 -1 1 -1 -0 -0 -3 -2 -2 1 -0 0 -2 -2 -1 -3 -3 -3 -3 -3 -3 -3
-14 -13 -12 -11 -14 -19 -2 -5 -6 -3 -5 -7 -4 -3 -2 -1 -2 -1 -0 -1 -2 -4 -5 -5 -4 -4 -3 -3 -2 -2 -2 -0 0 1 -2 -2 -2 -4 -5 -5 -5 -4 -2 -5
-13 -9 -7 -8 -9 -12 -5 -2 -3 -4 -6 -7 -8 -7 -4 -3 -4 -4 -6 -7 -7 -8 -8 -8 -8 -8 -8 -8 -5 -3 -2 -2 -1 2 -1 0 -6 -8 -6 -5 -6 -6 -6 -7
-9 -5 -5 -5 -7 -9 -13 -8 -5 -4 -5 -7 -7 -7 -7 -8 -8 -8 -7 -7 -7 -7 -6 -6 -7 -9 -8 -9 -10 -8 -6 -3 -1 0 -0 -4 -7 -7 -6 -5 -3 -5 -5 -6
-8 -3 -3 -4 -7 -9 -8 -6 -4 -4 -3 -5 -5 -6 -6 -5 -6 -7 -7 -7 -6 -5 -4 -5 -5 -7 -8 -8 -2 -4 -3 -6 -4 -3 -1 -2 -4 -5 -6 -6 -2 -4 -5 -4
-12 -3 -3 -5 -8 -11 -6 -2 -4 -3 -2 -3 -4 -5 -4 -5 -6 -5 -7 -7 -7 -7 -7 -6 -5 -5 -8 -6 -6 -0 -1 -1 -1 -3 -2 -3 -4 -5 -6 -2 -1 -4 -4 -4
-5 -3 -5 -9 -9 -8 -5 -2 -3 -3 -2 -3 -3 -4 -3 -4 -5 -4 -7 -7 -7 -6 -5 -5 -6 -4 -3 -2 -5 -3 -3 -0 0 -0 1 1 -5 -5 -2 -3 -4 -4 -4 -5
-4 -7 -5 -4 -5 -4 -3 -3 -3 -3 -3 -5 -5 -6 -6 -3 -3 -3 -4 -7 -6 -7 -4 -3 -2 -3 -5 -5 -3 -9 -3 -4 1 2 -2 -4 -5 -5 -6 -7 -6 -4 -4 -5
-4 -4 -6 -5 -7 -6 -5 -4 -4 -8 -7 -9 -8 -7 -7 -7 -10 -7 -4 -6 -6 -6 -6 -3 -4 -5 -7 -5 -7 -8 -10 -11 -2 -2 -4 -5 -8 -9 -9 -10 -8 -6 -7 -7
-5 -7 -10 -12 -16 -17 -17 -17 -16 -12 -10 -6 -10 -12 -11 -11 -12 -6 -5 -6 -9 -5 -5 -5 -4 -4 -8 -6 -7 -7 -8 -9 -9 -9 -10 -11 -11 -12 -12 -11 -11 -11 -11 -10
-9 -11 -15 -17 -19 -23 -24 -21 -16 -9 -11 -6 -9 -12 -8 -10 -13 -11 -9 -6 -5 -5 -7 -5 -5 -7 -7 -8 -9 -8 -10 -9 -8 -7 -10 -11 -11 -11 -11 -11 -11 -11 -10 -10
-12 -17 -18 -23 -24 -22 -18 -6 -10 -13 -12 -6 -6 -9 -13 -14 -10 -9 -10 -9 -8 -9 -7 -7 -7 -8 -8 -5 -6 -11 -12 -11 -10 -11 -11 -11 -11 -11 -11 -10 -10 -10 -10 -9
-15 -19 -23 -22 -20 -15 -8 -7 -8 -9 -9 -6 -7 -7 -8 -12 -8 -8 -8 -6 -6 -6 -5 -5 -6 -7 -8 -4 -5 -9 -9 -9 -8 -8 -10 -10 -10 -10 -9 -9 -9 -9 -9 -9
-19 -19 -20 -20 -15 -11 -8 -6 -7 -6 -7 -6 -7 -8 -8 -10 -10 -8 -7 -6 -5 -4 -5 -6 -6 -7 -5 -4 -8 -8 -7 -7 -7 -7 -7 -7 -7 -7 -7 -7 -7 -7 -7 -7
-18 -21 -19 -16 -14 -7 -6 -7 -8 -8 -6 -6 -6 -7 -8 -10 -9 -7 -6 -6 -4 -6 -4 -5 -7 -5 -4 -6 -7 -7 -7 -7 -7 -7 -7 -7 -7 -6 -6 -5 -5 -5 -5 -6
-20 -19 -17 -8 -9 -9 -10 -9 -8 -7 -7 -7 -6 -9 -7 -8 -7 -6 -6 -5 -3 -3 -4 -7 -5 -5 -6 -7 -8 -8 -8 -8 -8 -8 -8 -8 -7 -7 -7 -7 -6 -6 -6 -5
-17 -18 -13 -9 -11 -11 -7 -7 -8 -8 -6 -6 -7 -7 -6 -7 -5 -5 -6 -4 -6 -4 -4 -3 -3 -3 -6 -8 -8 -9 -8 -8 -8 -8 -8 -8 -8 -7 -7 -7 -7 -6 -6 -6
-19 -16 -11 -10 -8 -8 -8 -10 -8 -8 -7 -6 -5 -7 -8 -8 -7 -4 -6 -6 -6 -6 -3 -2 -3 -6 -8 -8 -9 -9 -9 -9 -9 -9 -9 -9 -8 -8 -8 -7 -7 -7 -6 -6
-17 -15 -12 -9 -8 -9 -10 -10 -9 -5 -5 -6 -6 -8 -8 -7 -6 -4 -6 -6 -7 -8 -4 -3 -5 -7 -8 -9 -9 -10 -10 -10 -10 -9 -9 -9 -9 -8 -7 -6 -6 -6 -6 -6
-18 -13 -14 -11 -11 -10 -8 -6 -6 -6 -7 -7 -8 -8 -8 -7 -6 -6 -6 -7 -6 -4 -2 -4 -6 -7 -9 -9 -9 -10 -10 -10 -10 -9 -9 -9 -9 -8 -7 -5 -5 -4 -4 -3
-16 -14 -12 -11 -9 -7 -7 -7 -8 -6 -8 -7 -8 -8 -8 -7 -7 -6 -6 -5 -2 -4 -5 -6 -7 -9 -9 -9 -9 -10 -10 -10 -10 -10 -9 -9 -9 -9 -8 -7 -5 -4 -4 -4
-16 -12 -10 -9 -8 -7 -7 -8 -7 -7 -8 -9 -8 -9 -8 -10 -7 -5 -4 -5 -6 -6 -7 -8 -9 -10 -10 -9 -9 -9 -9 -10 -10 -10 -10 -10 -9 -9 -9 -8 -7 -6 -5 -5
-11 -8 -9 -9 -8 -8 -8 -7 -7 -8 -9 -11 -8 -9 -10 -7 -6 -4 -7 -6 -7 -7 -8 -9 -9 -10 -10 -9 -9 -9 -9 -9 -10 -10 -10 -10 -10 -9 -9 -9 -9 -8 -8 -7

GFSNW_850_dewp_216.txt.gz
Dewpoint
6 6 -3 -31 -28 -32 -31 -20 -11 -6 -13 -1 -2 -0 -2 -2 -1 -2 -2 -2 -2 -1 -2 -1 -3 -4 -2 -3 -3 -2 -3 -1 1 -1 -4 -4 -0 -0 0 1 -1 -1 -1 1
6 7 3 -29 -29 -31 -33 -14 -6 -2 -4 -1 -1 -2 -2 -2 -2 -2 -1 -1 -2 -2 -1 -0 -2 -3 -3 -3 -3 -2 -3 -2 0 -4 -1 -2 -2 -3 -3 -3 -2 0 0 -1
7 7 5 -23 -30 -31 -31 -13 -8 -2 -2 -2 -2 -1 -2 -2 -2 -2 -2 -1 -2 -1 -1 -3 -2 -2 -1 -2 -2 -2 -2 -1 -1 -1 -4 -1 -0 -1 -1 -1 1 0 -0 -1
7 7 5 -18 -30 -31 -29 -9 -2 -2 -7 -2 -2 -3 -2 -1 -2 -2 -3 -0 -1 -1 0 -0 -1 -1 -2 -2 -3 -2 -2 1 -0 -1 -1 -1 -0 -0 -1 -1 -1 1 -1 -1
7 7 5 -15 -30 -31 -26 -7 -5 -2 -4 -4 -4 -4 -2 -2 -1 -2 -1 -0 -1 -3 -2 -1 -1 -3 -2 -1 -2 -2 -3 1 0 1 -1 -1 -1 -2 -2 -2 -3 -2 -2 -2
7 7 6 -10 -29 -29 -21 -14 -7 -13 -11 -6 -5 -4 -2 -1 -3 -2 -1 -2 -5 -3 -4 -6 -7 -7 -7 -5 -3 -2 -1 -1 -0 -0 -2 -5 -6 -5 -5 -5 -4 -3 -2 -4
7 7 6 -10 -27 -24 -22 -18 -11 -9 -15 -7 -7 -5 -3 -2 -3 -3 -3 -6 -7 -7 -7 -8 -9 -8 -7 -7 -7 -6 -2 -2 -1 -1 -2 -2 -9 -8 -7 -2 -3 -3 -3 -3
7 7 5 -7 -22 -17 -19 -14 -12 -11 -8 -6 -7 -7 -7 -7 -7 -7 -7 -7 -8 -7 -7 -5 -6 -7 -9 -8 -7 -8 -6 -4 -2 -1 -1 -4 -6 -4 -4 -3 -2 -4 -3 -4
7 6 4 -9 -17 -10 -14 -17 -14 -12 -9 -8 -5 -6 -6 -5 -5 -6 -7 -7 -7 -7 -5 -4 -3 -5 -8 -8 -4 -6 -7 -5 -3 -2 0 -0 -6 -6 -5 -5 -1 -1 -4 -7
7 5 1 -7 -9 -8 -13 -14 -13 -9 -8 -6 -4 -5 -5 -6 -5 -5 -5 -6 -8 -6 -7 -5 -5 -4 -5 -5 -3 -2 -3 -4 -1 -2 -0 -2 -5 -5 -5 -2 -0 -4 -5 -9
4 1 -1 -2 -4 -6 -10 -10 -9 -7 -5 -4 -3 -3 -4 -4 -5 -5 -6 -7 -6 -6 -5 -4 -3 -2 -3 -4 -5 -5 -3 -1 -1 -1 -0 -1 -3 -3 -2 -6 -6 -4 -5 -7
0 -0 -1 -2 -2 -4 -10 -5 -3 -3 -4 -5 -5 -6 -6 -4 -3 -3 -4 -6 -5 -6 -5 -5 -5 -4 -6 -6 -5 -9 -8 -6 -7 -3 -2 -7 -8 -7 -7 -8 -7 -9 -11 -11
-0 -0 -0 -1 -4 -4 -8 -5 -3 -4 -5 -12 -12 -8 -10 -11 -10 -7 -3 -4 -4 -6 -6 -5 -5 -4 -6 -6 -6 -8 -10 -9 -8 -8 -11 -11 -12 -12 -10 -10 -10 -10 -11 -11
-1 -1 -1 -3 -2 -2 -3 -3 -5 -11 -22 -14 -11 -9 -12 -13 -12 -11 -11 -8 -6 -5 -5 -5 -5 -4 -7 -6 -7 -7 -8 -9 -9 -9 -11 -9 -10 -9 -8 -8 -9 -9 -8 -8
-1 -2 -1 -1 -2 -3 -4 -9 -16 -22 -24 -14 -13 -13 -12 -10 -11 -11 -9 -8 -5 -5 -6 -5 -6 -6 -7 -8 -8 -7 -10 -10 -8 -8 -8 -8 -7 -7 -7 -7 -7 -8 -8 -7
-2 -2 -2 -4 -8 -14 -18 -21 -21 -21 -19 -19 -9 -11 -13 -12 -11 -12 -12 -9 -9 -7 -6 -7 -8 -8 -9 -8 -7 -8 -7 -7 -7 -7 -7 -7 -7 -7 -7 -9 -9 -8 -7 -7
-2 -3 -9 -13 -19 -20 -18 -14 -17 -18 -16 -12 -9 -9 -11 -10 -10 -8 -8 -9 -9 -8 -7 -7 -8 -8 -6 -5 -6 -6 -8 -8 -9 -9 -8 -9 -9 -9 -10 -10 -9 -9 -9 -8
-4 -8 -14 -15 -12 -12 -12 -11 -11 -10 -9 -7 -10 -10 -11 -10 -11 -9 -7 -6 -7 -5 -6 -5 -5 -6 -6 -6 -7 -8 -9 -9 -10 -9 -10 -9 -9 -9 -10 -10 -10 -9 -9 -8
-6 -5 -7 -11 -14 -12 -8 -7 -7 -7 -8 -7 -8 -9 -11 -9 -8 -7 -6 -5 -6 -5 -5 -5 -6 -6 -6 -6 -7 -8 -9 -9 -9 -9 -9 -10 -10 -9 -9 -9 -9 -9 -8 -8
-8 -12 -17 -10 -8 -8 -8 -9 -10 -8 -7 -8 -8 -8 -9 -8 -7 -8 -6 -6 -6 -7 -6 -5 -5 -4 -6 -8 -8 -9 -10 -10 -10 -10 -10 -10 -10 -10 -10 -9 -9 -9 -8 -8
-16 -19 -9 -6 -7 -9 -9 -9 -10 -8 -8 -8 -9 -8 -8 -7 -8 -9 -6 -11 -8 -9 -7 -4 -5 -6 -8 -9 -9 -10 -10 -10 -10 -10 -10 -10 -10 -10 -10 -10 -9 -9 -9 -9
-20 -17 -10 -10 -9 -10 -11 -12 -9 -10 -10 -7 -6 -7 -8 -8 -8 -6 -7 -9 -10 -8 -7 -4 -6 -7 -8 -9 -9 -10 -10 -10 -10 -11 -11 -11 -10 -10 -10 -10 -10 -9 -7 -7
-18 -20 -14 -11 -9 -10 -12 -10 -11 -11 -7 -6 -7 -10 -9 -8 -7 -7 -9 -9 -9 -9 -8 -5 -8 -8 -9 -9 -10 -10 -10 -10 -10 -11 -11 -11 -10 -10 -10 -10 -10 -8 -7 -6
-22 -21 -11 -12 -11 -11 -10 -11 -9 -6 -7 -8 -9 -9 -8 -7 -8 -8 -8 -10 -8 -9 -6 -7 -8 -9 -9 -10 -10 -10 -10 -10 -10 -10 -10 -11 -11 -11 -10 -10 -10 -9 -8 -7
-20 -19 -13 -11 -9 -7 -7 -7 -7 -8 -8 -9 -9 -9 -8 -10 -12 -12 -10 -10 -6 -7 -8 -7 -9 -9 -9 -10 -10 -10 -10 -10 -10 -10 -10 -10 -11 -11 -11 -10 -10 -9 -8 -7
-16 -12 -10 -9 -8 -8 -7 -7 -7 -8 -9 -9 -10 -12 -15 -13 -13 -11 -12 -9 -10 -9 -9 -9 -9 -9 -10 -10 -10 -10 -10 -10 -10 -10 -10 -10 -10 -11 -11 -10 -10 -10 -9 -8
-13 -9 -9 -9 -10 -8 -7 -9 -8 -9 -11 -13 -10 -13 -13 -12 -12 -11 -12 -12 -12 -10 -10 -10 -10 -10 -10 -10 -10 -10 -10 -10 -10 -10 -10 -10 -9 -9 -10 -10 -11 -10 -9 -9

GFSNW_850_dewp_219.txt.gz
Dewpoint
5 6 6 6 -9 -30 -28 -25 -17 -8 -9 -3 -2 -1 -2 -2 -1 -2 -2 -2 -2 -1 -2 -1 -3 -4 -2 -3 -3 -2 -3 -1 1 -0 -4 -4 -0 -0 0 1 1 -1 -2 1
5 6 6 6 1 -29 -29 -23 -11 -4 -6 -4 -1 -3 -2 -1 -3 -2 -2 -1 -2 -2 -1 -1 -2 -3 -2 -2 -3 -2 -3 -3 -1 -3 -2 -3 -2 -3 -3 -2 -2 0 1 -0
5 6 6 7 5 -26 -30 -17 -9 -5 -3 -2 -3 -2 -2 -2 -2 -2 -2 -1 -2 -1 -1 -2 -1 -1 -1 -3 -2 -1 -2 -1 -1 -1 -3 -1 0 -1 -1 -1 2 1 0 -1
6 6 6 7 6 -17 -30 -14 -5 -2 -11 -4 -2 -3 -2 -1 -2 -2 -3 -1 -1 -1 -0 -1 -1 -1 -3 -4 -3 -2 -2 1 -1 -1 -1 -1 -0 -0 -1 -1 -1 0 -2 -2
6 6 6 7 6 -8 -28 -17 -9 -3 -5 -4 -4 -4 -4 -2 -2 -2 -2 -0 -1 -3 -1 -1 -1 -4 -4 -3 -2 -2 -3 0 -0 0 -2 -1 -3 -5 -5 -4 -3 -2 -3 -2
7 7 7 7 7 1 -24 -18 -11 -12 -11 -5 -5 -6 -5 -2 -3 -2 -1 -2 -5 -4 -3 -5 -6 -7 -7 -6 -4 -4 -4 -2 -1 -2 -3 -4 -6 -9 -6 -6 -3 -2 -1 -2
7 7 7 7 7 3 -22 -21 -15 -16 -20 -7 -5 -5 -3 -2 -3 -3 -3 -5 -7 -7 -7 -7 -8 -7 -7 -7 -7 -6 -5 -2 -2 -2 -3 -3 -10 -8 -7 -3 -1 -1 -3 -7
8 8 7 7 7 1 -12 -22 -17 -16 -13 -7 -7 -7 -7 -7 -7 -6 -7 -7 -7 -7 -7 -5 -5 -8 -9 -7 -7 -7 -6 -4 -3 -1 -2 -4 -6 -4 -4 -3 -0 0 -3 -7
8 8 7 7 6 -4 -11 -17 -13 -16 -16 -11 -7 -7 -7 -6 -6 -6 -7 -6 -6 -7 -6 -5 -4 -6 -7 -7 -4 -7 -6 -5 -5 -2 -1 -1 -5 -3 -5 -5 0 -4 -3 -4
8 8 7 6 5 -1 -6 -11 -13 -14 -15 -7 -5 -5 -5 -6 -6 -6 -6 -6 -7 -6 -7 -6 -5 -4 -5 -4 -2 -2 -4 -4 -2 -2 -1 -2 -3 -4 -6 -0 -2 -4 -4 -4
8 7 7 6 3 -2 -3 -7 -11 -12 -8 -4 -4 -4 -4 -4 -5 -5 -7 -8 -6 -6 -5 -5 -3 -2 -3 -4 -5 -5 -3 -1 -2 -2 -1 -2 -8 -9 -5 -5 -5 -7 -6 -9
7 6 3 0 -1 -1 -2 -6 -10 -8 -6 -5 -4 -3 -4 -4 -4 -4 -4 -7 -6 -6 -4 -5 -5 -4 -7 -7 -6 -10 -8 -7 -7 -4 -4 -10 -12 -11 -10 -8 -8 -8 -9 -10
5 3 1 -0 -1 -1 -2 -3 -2 -2 -3 -5 -6 -10 -12 -13 -10 -5 -4 -4 -4 -5 -6 -6 -5 -4 -6 -6 -6 -8 -10 -9 -8 -9 -12 -11 -10 -10 -9 -8 -7 -7 -7 -8
2 0 -0 -1 -1 -2 -2 -3 -3 -2 -13 -18 -12 -8 -12 -15 -15 -10 -7 -6 -5 -5 -5 -5 -5 -5 -7 -6 -8 -7 -9 -9 -9 -9 -11 -8 -10 -9 -8 -7 -7 -7 -7 -8
1 -0 -1 -1 -2 -2 -3 -2 -2 -5 -19 -12 -10 -10 -11 -11 -12 -12 -10 -9 -7 -6 -5 -5 -6 -6 -7 -8 -8 -7 -9 -8 -7 -7 -8 -7 -8 -8 -8 -7 -7 -9 -10 -9
-0 -1 -1 -1 -1 -2 -3 -4 -9 -14 -23 -24 -8 -10 -11 -10 -10 -10 -10 -8 -7 -6 -6 -7 -7 -7 -8 -8 -7 -7 -7 -8 -8 -7 -8 -9 -9 -9 -9 -10 -11 -10 -9 -8
-1 -1 -2 -1 -2 -4 -15 -18 -19 -20 -21 -18 -10 -10 -10 -10 -8 -8 -9 -9 -9 -7 -7 -8 -8 -7 -7 -7 -6 -7 -8 -9 -10 -10 -9 -10 -10 -9 -10 -11 -10 -10 -10 -9
-1 -2 -2 -5 -8 -14 -14 -14 -14 -16 -15 -12 -9 -9 -10 -10 -10 -8 -6 -7 -8 -8 -7 -5 -5 -6 -6 -7 -7 -8 -9 -10 -10 -10 -10 -10 -10 -10 -10 -11 -11 -10 -10 -9
-2 -4 -6 -7 -10 -12 -10 -9 -10 -11 -12 -9 -9 -9 -8 -9 -8 -7 -6 -6 -5 -5 -5 -5 -5 -6 -7 -7 -8 -8 -9 -9 -9 -10 -10 -10 -10 -11 -11 -10 -10 -10 -10 -9
-4 -10 -16 -10 -9 -9 -8 -8 -10 -9 -9 -9 -9 -8 -8 -8 -7 -8 -6 -6 -6 -9 -7 -6 -6 -5 -6 -8 -9 -9 -9 -10 -10 -11 -10 -11 -12 -12 -11 -11 -11 -10 -10 -10
-11 -14 -7 -6 -7 -9 -12 -11 -10 -8 -9 -9 -9 -8 -8 -7 -8 -8 -6 -10 -8 -11 -7 -5 -6 -6 -8 -9 -9 -10 -10 -10 -10 -10 -10 -11 -11 -12 -12 -12 -11 -11 -10 -10
-15 -12 -7 -8 -11 -12 -12 -13 -10 -10 -8 -7 -7 -6 -8 -8 -7 -7 -7 -9 -11 -9 -7 -5 -7 -8 -9 -9 -10 -10 -10 -10 -10 -10 -10 -11 -11 -11 -11 -11 -11 -11 -10 -9
-14 -19 -15 -12 -11 -11 -13 -12 -10 -9 -8 -6 -7 -9 -9 -8 -8 -7 -10 -9 -9 -9 -9 -7 -9 -9 -9 -9 -10 -10 -10 -10 -10 -10 -10 -10 -11 -11 -11 -11 -11 -10 -10 -9
-20 -22 -13 -12 -11 -11 -10 -9 -9 -7 -7 -8 -10 -8 -8 -7 -9 -9 -10 -11 -9 -10 -8 -9 -11 -9 -9 -10 -10 -10 -10 -10 -10 -10 -10 -10 -10 -11 -11 -11 -11 -10 -10 -9
-22 -19 -12 -11 -10 -8 -8 -7 -7 -8 -9 -10 -9 -9 -9 -11 -13 -12 -12 -11 -10 -10 -10 -9 -9 -9 -10 -10 -10 -10 -10 -10 -10 -10 -10 -10 -10 -10 -11 -11 -10 -10 -10 -9
-16 -12 -10 -8 -8 -8 -7 -8 -8 -9 -10 -10 -11 -13 -15 -13 -14 -12 -13 -11 -12 -12 -10 -9 -10 -10 -10 -10 -10 -10 -10 -10 -10 -10 -10 -10 -10 -10 -10 -10 -10 -10 -10 -10
-11 -9 -9 -10 -9 -8 -8 -8 -9 -10 -10 -13 -11 -13 -13 -13 -14 -12 -12 -13 -14 -11 -10 -10 -10 -10 -10 -10 -10 -10 -11 -14 -12 -11 -10 -10 -10 -10 -10 -10 -10 -10 -10 -10

GFSNW_850_dewp_222.txt.gz
Dewpoint
4 5 5 6 6 4 -14 -26 -18 -16 -10 -4 -2 -1 -2 -2 -2 -2 -2 -2 -2 -1 -1 -1 -2 -3 -2 -2 -3 -2 -3 -1 1 -1 -4 -4 -1 -0 -0 3 1 0 -0 0
4 4 5 6 6 6 -13 -26 -15 -9 -9 -7 -2 -3 -2 -1 -3 -3 -2 -1 -2 -2 -1 -1 -2 -2 -2 -2 -2 -2 -3 -3 -1 -4 -4 -4 -2 -3 -3 -1 -2 1 2 -1
4 4 5 5 6 6 -12 -19 -10 -10 -5 -3 -4 -3 -3 -2 -2 -2 -2 -1 -2 -1 -1 -2 -1 -2 -2 -3 -2 -1 -2 -1 -1 -2 -5 -2 0 -1 -1 -1 1 -0 0 -1
5 5 5 6 6 7 -6 -18 -9 -4 -10 -8 -3 -3 -3 -2 -3 -2 -2 -1 -1 -1 -0 -1 -1 -2 -3 -4 -3 -2 -2 1 -1 -1 -1 -1 -1 -1 -1 0 -1 0 -2 -2
6 6 6 6 6 7 1 -23 -12 -5 -7 -4 -5 -5 -6 -3 -2 -2 -2 -1 -1 -3 -1 -1 -1 -3 -4 -4 -3 -3 -5 -1 -2 -0 -2 -3 -3 -5 -6 -6 -4 -3 -3 -2
7 7 7 7 7 7 2 -11 -16 -16 -15 -5 -6 -8 -7 -4 -3 -2 -1 -2 -3 -3 -3 -4 -5 -6 -6 -6 -5 -5 -6 -4 -2 -3 -3 -4 -6 -8 -7 -6 -1 -2 -0 -2
8 8 7 7 7 7 6 -1 -17 -15 -18 -7 -5 -7 -6 -2 -3 -3 -3 -5 -6 -6 -8 -7 -7 -7 -6 -6 -6 -6 -6 -2 -3 -2 -4 -5 -11 -6 -6 -1 -1 -0 -2 -4
8 8 8 8 7 7 6 5 -11 -20 -15 -11 -8 -8 -4 -4 -4 -6 -6 -6 -7 -7 -7 -6 -6 -8 -8 -7 -7 -7 -6 -5 -4 -3 -2 -5 -4 -3 -3 -3 -1 -2 -2 -3
8 8 8 8 8 7 7 3 -12 -16 -16 -8 -10 -7 -7 -6 -6 -6 -7 -7 -6 -7 -7 -5 -5 -7 -7 -7 -4 -7 -6 -6 -5 -2 -1 -2 -3 -5 -6 -5 -0 -4 -4 -4
8 8 8 8 7 7 6 1 -6 -8 -8 -6 -6 -5 -4 -6 -6 -6 -6 -6 -7 -7 -7 -7 -5 -5 -5 -4 -3 -2 -4 -4 -3 -3 -2 -3 -7 -8 -10 -1 -3 -6 -6 -6
8 8 8 7 7 6 5 2 -1 -2 -3 -2 -4 -3 -3 -4 -5 -4 -6 -7 -7 -6 -5 -5 -4 -3 -4 -4 -5 -5 -3 -3 -3 -3 -2 -3 -12 -12 -10 -8 -9 -8 -8 -7
-3 6 7 7 6 4 3 -0 -0 -1 -2 -2 -2 -2 -2 -3 -5 -5 -6 -7 -6 -7 -4 -4 -4 -3 -6 -7 -6 -10 -6 -8 -5 -4 -4 -11 -11 -11 -10 -8 -7 -7 -7 -7
-7 -1 6 5 3 1 -0 -0 -0 -1 -2 -2 -3 -3 -3 -4 -4 -3 -5 -4 -6 -6 -6 -6 -6 -5 -7 -6 -7 -8 -10 -9 -8 -10 -14 -11 -10 -9 -9 -8 -8 -9 -7 -7
-7 4 5 2 0 -1 -1 -1 -1 -2 -2 -5 -9 -9 -11 -13 -13 -10 -5 -5 -5 -5 -5 -6 -5 -5 -7 -6 -9 -8 -9 -9 -9 -9 -10 -8 -9 -9 -9 -9 -9 -8 -9 -10
-3 5 3 0 -1 -1 -1 -2 -2 -2 -7 -8 -10 -9 -10 -13 -13 -13 -8 -5 -6 -5 -6 -5 -6 -6 -7 -8 -8 -7 -9 -8 -7 -7 -8 -7 -8 -9 -10 -9 -9 -11 -10 -10
3 3 0 -1 -1 -2 -2 -3 -3 -2 -15 -16 -7 -10 -10 -11 -11 -11 -9 -8 -7 -7 -6 -6 -7 -7 -8 -8 -8 -7 -8 -8 -8 -8 -9 -9 -10 -10 -10 -10 -11 -11 -10 -10
2 0 -1 -1 -2 -3 -5 -9 -11 -7 -16 -21 -11 -9 -9 -9 -9 -9 -8 -7 -8 -8 -8 -7 -8 -8 -7 -7 -6 -7 -8 -9 -9 -10 -9 -10 -10 -10 -11 -11 -11 -11 -11 -11
-0 -0 -1 -2 -2 -6 -12 -12 -11 -14 -19 -17 -10 -10 -9 -10 -9 -6 -8 -8 -9 -8 -8 -6 -6 -7 -6 -7 -7 -8 -8 -9 -10 -10 -10 -10 -11 -11 -11 -11 -11 -11 -11 -11
-1 -2 -2 -4 -6 -8 -11 -12 -12 -14 -14 -12 -10 -10 -8 -8 -8 -7 -6 -6 -6 -5 -5 -5 -6 -6 -7 -7 -8 -9 -9 -9 -9 -10 -10 -10 -11 -11 -11 -11 -12 -11 -12 -11
-2 -3 -3 -7 -8 -11 -11 -12 -13 -13 -12 -11 -9 -9 -8 -8 -7 -7 -7 -6 -6 -8 -7 -6 -6 -5 -7 -8 -9 -9 -10 -10 -10 -10 -10 -10 -11 -11 -11 -12 -12 -11 -11 -11
-4 -7 -6 -5 -7 -12 -15 -13 -12 -10 -10 -9 -8 -8 -8 -7 -8 -8 -6 -9 -8 -9 -7 -5 -6 -6 -8 -9 -9 -10 -10 -10 -10 -10 -10 -10 -10 -11 -11 -12 -12 -11 -11 -11
-9 -7 -7 -8 -14 -15 -12 -13 -10 -11 -10 -7 -7 -6 -8 -8 -7 -8 -8 -10 -11 -9 -7 -6 -7 -8 -9 -9 -10 -10 -10 -10 -10 -10 -10 -10 -10 -10 -11 -11 -12 -11 -11 -10
-8 -12 -14 -14 -12 -12 -15 -14 -13 -12 -9 -7 -8 -9 -8 -7 -8 -8 -10 -9 -8 -9 -9 -7 -9 -8 -9 -10 -10 -10 -10 -10 -10 -10 -10 -10 -10 -10 -11 -11 -11 -11 -11 -10
-16 -17 -11 -11 -11 -13 -12 -11 -10 -7 -7 -8 -10 -9 -8 -8 -10 -10 -9 -10 -9 -10 -10 -9 -11 -9 -10 -10 -10 -10 -10 -10 -10 -10 -10 -10 -10 -10 -10 -10 -10 -11 -11 -10
-20 -20 -11 -10 -10 -8 -8 -7 -8 -8 -9 -10 -10 -10 -10 -11 -11 -11 -11 -11 -10 -10 -10 -10 -10 -10 -10 -10 -10 -10 -10 -10 -11 -11 -10 -10 -10 -10 -10 -10 -10 -10 -10 -10
-15 -11 -9 -8 -8 -8 -8 -9 -9 -9 -11 -11 -12 -13 -13 -13 -14 -12 -12 -12 -11 -12 -11 -10 -10 -10 -10 -10 -10 -10 -10 -12 -14 -13 -13 -11 -11 -10 -10 -10 -10 -10 -10 -10
-10 -9 -9 -9 -8 -8 -8 -9 -10 -10 -11 -12 -12 -13 -14 -14 -14 -12 -13 -13 -14 -11 -11 -11 -11 -11 -11 -10 -11 -11 -11 -14 -14 -14 -14 -14 -13 -12 -10 -10 -10 -10 -10 -10

GFSNW_850_dewp_228.txt.gz
Dewpoint
2 3 3 4 4 5 5 2 -6 -15 -12 -6 -2 -2 -2 -2 -2 -3 -2 -2 -2 -2 -1 -2 -3 -4 -3 -2 -2 -2 -3 -2 -1 -5 -4 -4 -2 -2 -2 -0 1 1 1 -2
1 2 3 3 4 5 6 4 -10 -13 -12 -6 -6 -4 -3 -2 -3 -3 -3 -2 -2 -2 -2 -3 -3 -3 -3 -3 -2 -2 -3 -3 -3 -5 -2 -3 -2 -2 -2 -1 -1 0 -0 -4
2 2 3 4 5 5 6 0 -2 -9 -10 -7 -8 -9 -7 -5 -2 -2 -2 -2 -2 -2 -2 -2 -2 -2 -2 -3 -2 -1 -1 -1 -5 -7 -9 -4 -2 -2 -2 -2 -0 -2 -3 -4
3 3 3 4 5 6 6 2 -7 -8 -2 -7 -5 -6 -6 -6 -6 -2 -2 -2 -2 -2 -3 -2 -2 -2 -3 -4 -3 -3 -3 -4 -2 -2 -2 -1 -1 -1 -1 -0 -1 -1 -6 -6
5 6 6 6 6 7 6 6 -7 -9 -9 -6 -5 -7 -7 -6 -6 -5 -3 -2 -2 -2 -2 -5 -7 -3 -3 -5 -5 -4 -7 -4 -4 -5 -8 -7 -5 -7 -6 -5 -5 -5 -5 -4
8 5 5 6 6 7 6 6 2 -6 -4 -6 -7 -8 -9 -7 -5 -4 -3 -2 -2 -1 -2 -3 -4 -4 -4 -5 -7 -7 -7 -7 -5 -7 -5 -6 -8 -7 -8 -6 -5 -4 -2 -3
8 8 7 5 5 7 7 7 5 -1 0 -6 -7 -9 -9 -5 -3 -4 -3 -2 -3 -6 -7 -8 -7 -7 -7 -7 -7 -6 -6 -5 -5 -3 -6 -4 -5 -3 -3 -3 -2 -3 -5 -7
8 8 8 8 8 8 7 7 6 4 -0 -7 -10 -8 -5 -3 -2 -1 -2 -3 -4 -6 -7 -8 -10 -9 -8 -6 -7 -7 -6 -6 -5 -4 -5 -8 -4 -8 -6 -5 -1 -6 -7 -8
8 8 8 8 8 8 7 7 7 5 0 -3 -4 -7 -4 -2 -2 -3 -5 -6 -7 -7 -7 -8 -2 -2 -9 -7 -4 -7 -7 -6 -6 -4 -3 -6 -4 -10 -11 -8 -3 -8 -8 -9
4 6 8 8 8 8 7 7 6 5 4 2 -4 -2 -0 -1 -2 -4 -6 -6 -6 -7 -6 -3 -2 -3 -7 -6 -5 -3 -4 -4 -3 -4 -3 -5 -11 -12 -8 -3 -5 -8 -8 -9
1 1 6 8 7 7 7 6 5 4 3 3 2 1 1 -1 -2 -2 -4 -5 -6 -6 -3 -2 -6 -6 -5 -4 -5 -4 -4 -3 -4 -4 -3 -2 -11 -12 -10 -8 -9 -9 -9 -10
-6 -5 -3 1 5 6 6 5 3 3 3 2 2 1 0 -1 -1 -3 -5 -4 -5 -3 -3 -4 -4 -3 -4 -5 -6 -9 -4 -5 -4 -5 -6 -11 -10 -9 -8 -9 -9 -10 -10 -9
-6 -7 -6 -5 -4 -4 -1 5 4 2 1 0 -1 -1 -1 -1 -2 -2 -2 -3 -4 -3 -4 -3 -4 -4 -7 -7 -7 -8 -10 -10 -9 -10 -12 -10 -9 -9 -8 -10 -10 -10 -9 -10
-6 -6 -6 -5 -1 -3 -3 3 3 2 0 -1 -3 -2 -2 -2 -2 -2 -2 -3 -3 -3 -3 -4 -5 -7 -8 -9 -9 -9 -9 -9 -9 -10 -11 -10 -9 -8 -9 -10 -10 -10 -10 -10
-7 -4 -4 -1 1 -0 2 2 1 1 1 -3 -7 -5 -6 -6 -6 -5 -5 -3 -4 -4 -5 -5 -5 -6 -8 -7 -8 -7 -8 -9 -10 -12 -8 -8 -9 -9 -10 -10 -10 -10 -10 -10
-5 -5 -1 2 2 2 2 -0 -0 -0 -0 -3 -5 -8 -8 -10 -11 -12 -8 -4 -3 -5 -6 -6 -7 -7 -7 -8 -10 -8 -7 -8 -8 -9 -9 -9 -10 -11 -10 -10 -11 -11 -10 -11
-2 3 3 3 2 1 0 -2 -2 -1 -2 -8 -7 -7 -8 -9 -9 -7 -5 -5 -6 -6 -7 -7 -7 -7 -7 -8 -9 -8 -8 -8 -9 -9 -10 -10 -10 -10 -11 -10 -11 -11 -11 -11
3 2 2 1 -0 -1 -2 -4 -3 -6 -9 -16 -7 -8 -8 -8 -7 -8 -7 -7 -8 -8 -7 -7 -8 -7 -6 -6 -8 -8 -9 -9 -9 -10 -10 -10 -11 -11 -11 -11 -11 -11 -11 -11
2 2 1 -1 -3 -4 -3 -3 -6 -8 -9 -14 -10 -8 -7 -9 -7 -6 -6 -7 -7 -7 -7 -7 -7 -7 -6 -8 -8 -9 -9 -10 -10 -10 -10 -11 -10 -11 -11 -11 -11 -11 -11 -11
2 0 -1 -4 -5 -5 -5 -9 -11 -15 -15 -14 -9 -9 -7 -8 -7 -6 -6 -6 -6 -5 -7 -5 -5 -7 -7 -9 -9 -10 -10 -10 -10 -10 -10 -10 -11 -11 -11 -11 -11 -11 -12 -12
-1 -2 -5 -6 -9 -11 -13 -13 -13 -12 -11 -11 -8 -8 -7 -7 -7 -6 -6 -6 -7 -5 -7 -6 -6 -6 -8 -9 -9 -10 -10 -10 -10 -10 -10 -10 -10 -10 -11 -11 -11 -11 -11 -12
-1 -4 -7 -9 -8 -10 -8 -11 -11 -10 -11 -8 -7 -7 -7 -7 -7 -7 -7 -7 -8 -6 -7 -6 -6 -8 -9 -9 -9 -10 -10 -10 -10 -10 -10 -11 -10 -10 -10 -11 -11 -11 -11 -11
-4 -4 -6 -6 -10 -8 -7 -9 -11 -10 -10 -8 -7 -8 -8 -8 -8 -8 -8 -7 -7 -9 -6 -6 -8 -9 -10 -10 -10 -10 -10 -10 -10 -12 -13 -13 -12 -11 -11 -11 -11 -11 -11 -11
-4 -8 -9 -8 -10 -11 -13 -13 -12 -9 -8 -8 -10 -9 -8 -9 -9 -9 -7 -9 -8 -7 -7 -7 -10 -10 -10 -10 -10 -11 -11 -11 -12 -14 -14 -14 -15 -14 -12 -11 -11 -11 -11 -11
-8 -8 -8 -11 -10 -9 -9 -8 -8 -8 -8 -10 -11 -10 -10 -10 -9 -10 -9 -8 -7 -8 -8 -9 -10 -10 -11 -11 -11 -11 -11 -11 -13 -14 -14 -14 -14 -14 -14 -13 -11 -11 -11 -11
-10 -9 -9 -9 -9 -8 -8 -9 -9 -10 -11 -13 -13 -11 -10 -10 -10 -9 -8 -8 -8 -9 -10 -11 -11 -11 -12 -11 -11 -11 -11 -11 -13 -14 -14 -14 -14 -14 -14 -14 -13 -11 -11 -11
-9 -9 -8 -9 -9 -9 -9 -10 -10 -11 -13 -10 -11 -11 -11 -13 -10 -9 -11 -9 -10 -11 -11 -12 -13 -13 -13 -12 -11 -11 -11 -12 -13 -13 -13 -14 -14 -14 -14 -14 -14 -14 -12 -11

GFSNW_850_dewp_231.txt.gz
Dewpoint
-1 1 2 3 3 4 5 5 2 -7 -12 -3 -5 -3 -3 -2 -3 -3 -3 -3 -3 -4 -4 -4 -5 -5 -4 -3 -2 -3 -4 -3 -2 -4 -5 -5 -4 -4 -4 -1 -1 -0 2 -2
-1 1 2 2 3 5 5 5 -2 -7 -3 1 -3 -5 -4 -3 -4 -4 -4 -4 -3 -3 -4 -3 -5 -4 -3 -2 -2 -2 -3 -4 -2 -4 -2 -3 -3 -3 -3 -3 -1 -1 -1 -3
0 1 2 2 3 5 6 4 2 -1 -3 -4 -5 -6 -7 -6 -2 -3 -3 -3 -3 -3 -4 -4 -4 -4 -3 -3 -3 -1 -2 -3 -4 -4 -6 -7 -5 -4 -3 -2 -1 -2 -3 -5
3 3 3 3 4 5 6 5 -1 -5 2 -3 -4 -7 -6 -6 -5 -3 -3 -4 -3 -4 -5 -5 -5 -5 -5 -5 -3 -3 -5 -5 -6 -6 -6 -4 -4 -3 -3 -2 -2 -1 -2 -4
5 5 5 6 6 6 6 6 -1 -7 -6 -5 -5 -6 -3 -5 -6 -7 -5 -4 -4 -4 -3 -6 -5 -6 -5 -5 -6 -6 -6 -5 -6 -6 -9 -9 -8 -8 -7 -5 -4 -4 -4 -5
3 4 5 6 6 6 6 6 6 0 0 -5 -5 -4 -5 -7 -6 -4 -3 -3 -2 -3 -4 -5 -6 -6 -7 -7 -6 -8 -8 -8 -7 -5 -8 -8 -9 -7 -9 -9 -8 -6 -6 -4
4 5 8 8 7 6 6 6 6 3 4 -3 -3 -7 -9 -7 -4 -5 -3 -2 -2 -4 -7 -7 -8 -7 -8 -8 -8 -7 -7 -6 -6 -4 -7 -4 -3 -4 -3 -4 -4 -3 -3 -6
6 6 8 8 8 7 7 7 7 6 4 -2 -5 -6 -6 -4 -3 -1 -2 -2 -2 -4 -5 -7 -5 -8 -8 -7 -7 -7 -7 -6 -4 -3 -5 -8 -5 -7 -6 -5 -2 -5 -6 -8
8 8 8 8 8 7 7 7 7 6 4 1 -0 -3 -3 -1 -1 -1 -3 -5 -5 -6 -8 -6 -1 -0 -2 -2 -4 -7 -7 -6 -5 -5 -1 -5 -5 -9 -11 -10 -4 -8 -9 -10
8 8 7 7 8 8 7 7 6 5 5 4 2 -0 -0 -0 -0 -0 -5 -6 -6 -6 -5 -3 -1 -1 -5 -2 -6 -3 -3 -3 -2 -3 -1 -6 -10 -12 -7 -4 -5 -9 -10 -10
3 4 7 6 7 7 7 6 6 5 4 3 3 2 2 0 0 1 -1 -5 -5 -6 -4 -3 -2 -3 -6 -5 -6 -5 -4 -3 -3 -4 -2 -3 -10 -12 -9 -8 -10 -10 -10 -10
-3 -6 -4 -2 5 5 7 6 6 4 4 3 3 2 2 2 1 0 -4 -3 -6 -5 -3 -2 -4 -4 -4 -6 -5 -7 -4 -6 -2 -5 -6 -10 -10 -10 -9 -9 -10 -10 -10 -10
-10 -6 -4 -3 -2 -3 -1 4 5 3 2 2 1 1 1 0 -0 -1 -3 -3 -4 -4 -3 -2 -2 -2 -6 -5 -8 -9 -9 -10 -7 -8 -11 -11 -11 -9 -9 -9 -10 -10 -10 -10
-5 -5 -2 -2 -3 -3 -3 1 3 3 2 1 -2 -1 -1 -1 -1 -2 -2 -2 -2 -3 -3 -2 -2 -4 -9 -10 -9 -11 -9 -9 -11 -11 -12 -11 -9 -9 -9 -10 -10 -10 -10 -10
-6 -6 -5 -3 -1 -2 1 2 2 2 1 0 -5 -4 -4 -3 -2 -2 -2 -2 -2 -3 -3 -4 -4 -6 -7 -9 -9 -10 -9 -11 -10 -12 -9 -9 -10 -9 -10 -10 -10 -10 -10 -10
-7 -4 -1 2 -3 1 2 1 1 1 1 -1 -3 -6 -8 -9 -10 -9 -7 -3 -3 -4 -5 -7 -7 -7 -7 -9 -12 -9 -8 -8 -8 -9 -9 -9 -9 -10 -10 -10 -10 -11 -10 -11
-5 0 3 3 2 2 1 0 -1 0 -0 -2 -6 -6 -8 -9 -9 -7 -5 -4 -5 -5 -6 -6 -9 -8 -7 -8 -10 -9 -8 -8 -8 -9 -10 -10 -10 -10 -10 -10 -11 -11 -11 -11
-1 1 2 2 2 1 0 -2 -2 -1 -3 -11 -6 -6 -7 -8 -7 -7 -6 -7 -6 -6 -7 -7 -9 -8 -8 -6 -9 -8 -8 -9 -9 -9 -10 -10 -10 -10 -10 -10 -10 -11 -11 -10
2 2 2 1 -1 -1 -1 -2 -3 -5 -6 -6 -7 -6 -5 -8 -6 -6 -7 -7 -7 -6 -8 -10 -9 -10 -6 -8 -8 -8 -9 -9 -9 -10 -10 -10 -10 -10 -10 -10 -10 -10 -10 -10
2 2 -0 -3 -2 -2 -3 -6 -5 -4 -10 -14 -8 -7 -6 -7 -6 -6 -6 -5 -6 -5 -7 -6 -6 -8 -7 -9 -9 -9 -9 -10 -10 -10 -10 -10 -10 -10 -10 -11 -11 -11 -11 -11
1 -1 -5 -4 -5 -9 -13 -13 -9 -11 -8 -9 -7 -8 -7 -7 -7 -6 -6 -6 -6 -6 -6 -6 -6 -6 -8 -8 -9 -9 -10 -10 -10 -10 -10 -10 -11 -11 -11 -11 -11 -11 -11 -12
-1 -3 -6 -8 -8 -9 -6 -7 -9 -9 -9 -8 -7 -7 -7 -6 -6 -6 -6 -6 -7 -6 -7 -6 -7 -8 -8 -9 -9 -10 -10 -10 -10 -10 -11 -12 -14 -13 -13 -11 -11 -11 -11 -11
-3 -4 -5 -5 -8 -5 -5 -6 -9 -9 -8 -7 -7 -7 -6 -7 -7 -7 -7 -6 -7 -8 -6 -7 -7 -9 -9 -10 -10 -10 -11 -11 -11 -12 -13 -14 -15 -15 -14 -13 -12 -11 -11 -11
-2 -5 -6 -6 -7 -7 -7 -8 -9 -8 -7 -7 -7 -7 -7 -7 -7 -7 -7 -8 -8 -7 -7 -7 -9 -9 -10 -10 -10 -11 -11 -11 -11 -13 -14 -14 -14 -14 -14 -14 -14 -11 -11 -11
-6 -6 -6 -8 -9 -9 -9 -8 -8 -8 -7 -9 -9 -8 -8 -8 -8 -8 -8 -7 -7 -8 -7 -8 -9 -10 -11 -11 -11 -11 -11 -11 -11 -13 -14 -14 -14 -14 -14 -14 -14 -13 -11 -11
-8 -8 -9 -9 -9 -8 -7 -7 -8 -9 -10 -12 -12 -9 -9 -9 -9 -8 -8 -8 -8 -7 -9 -9 -10 -11 -12 -13 -12 -11 -11 -11 -12 -13 -13 -14 -14 -14 -14 -14 -14 -14 -14 -12
-8 -8 -7 -8 -8 -8 -8 -8 -9 -11 -10 -9 -9 -10 -10 -10 -8 -8 -9 -8 -9 -9 -10 -11 -12 -13 -13 -13 -12 -12 -12 -12 -12 -13 -13 -13 -14 -14 -14 -14 -14 -14 -14 -14

GFSNW_850_dewp_237.txt.gz
Dewpoint
-7 -6 -3 -0 1 1 2 5 4 0 -1 -2 -4 -3 -2 -3 -4 -4 -3 -3 -3 -3 -4 -4 -5 -4 -3 -3 -3 -2 -3 -2 -0 -3 -5 -5 -5 -4 -4 1 1 3 4 3
-6 -4 -2 -0 1 1 2 5 3 1 1 1 -2 -4 -3 -3 -3 -4 -4 -4 -3 -4 -3 -2 -5 -4 -3 -3 -3 -0 -2 -4 -2 -1 -2 -4 -3 -4 -4 -2 -1 3 4 2
-3 -3 -2 -0 1 2 3 5 3 1 -1 -3 -3 -2 -5 -3 -4 -3 -4 -3 -3 -4 -3 -5 -3 -4 -3 -3 -3 -1 -3 -1 -4 -1 -2 -4 -4 -5 -5 -1 3 3 3 2
-1 0 1 1 2 4 4 5 1 -2 2 -2 -3 -4 -5 -4 -3 -4 -4 -3 -3 -3 -3 -3 -3 -4 -5 -4 -1 -3 -3 -1 -2 -3 -5 -6 -6 -6 -7 -5 -4 1 -2 0
2 3 3 3 4 5 5 5 5 -2 -4 -4 -3 -4 -2 -2 -5 -4 -3 -3 -4 -4 -2 -3 0 -3 -4 -4 -5 -6 -5 -2 -4 -4 -6 -6 -5 -6 -7 -7 -7 -7 -7 -5
2 2 3 4 5 4 6 6 5 5 3 -2 -1 -0 -1 -3 -6 -5 -4 -3 -4 -2 -3 -4 -4 -5 -6 -6 -7 -7 -6 -5 -4 -3 -4 -5 -4 -4 -3 -3 -7 -5 -4 -4
7 7 6 4 4 4 5 7 6 5 5 2 0 -0 -5 -6 -6 -5 -4 -4 -2 -1 -2 -0 -1 -4 -4 -6 -8 -8 -6 -5 -3 -2 -4 -2 -4 -7 -5 -5 -3 -4 -5 -8
7 8 8 8 5 4 5 7 7 6 5 3 2 -1 -2 -2 -1 -1 -3 -3 -2 -0 -0 -5 -4 -3 -8 -6 -7 -7 -7 -6 -3 -2 -2 -5 -5 -8 -8 -7 -4 -8 -8 -10
8 8 8 8 7 6 7 5 7 6 5 3 4 2 1 1 0 -0 -1 -1 -0 -1 -5 -5 -2 1 -1 -2 -4 -7 -7 -6 -4 -1 -1 -1 -6 -10 -11 -10 -4 -9 -10 -9
7 8 8 8 8 7 7 6 7 6 6 5 5 3 2 2 1 2 -1 -2 -1 -4 -5 -3 -2 -1 -5 -1 -3 -3 -4 -4 -2 -2 -0 -3 -10 -11 -10 -3 -6 -10 -10 -10
6 7 6 7 7 7 7 6 6 5 5 5 5 4 3 2 1 2 0 -1 -4 -5 -3 -2 -2 -2 -3 -6 -6 -4 -3 -2 -2 -2 -1 -2 -10 -10 -8 -9 -10 -10 -10 -10
5 6 6 6 6 6 6 6 5 5 4 4 4 4 3 2 2 2 1 -0 -5 -5 -2 -2 -2 -2 -4 -5 -1 -7 -3 -5 -1 -3 -3 -10 -10 -9 -9 -9 -10 -10 -10 -11
3 3 5 5 4 4 4 5 5 4 4 3 2 2 2 2 2 1 1 -1 -3 -4 -3 -2 -1 -1 -3 -2 -4 -7 -8 -9 -6 -5 -9 -10 -9 -9 -9 -9 -10 -11 -11 -11
-0 -0 2 2 2 1 1 1 2 3 3 2 -0 -0 0 1 1 1 0 -1 -2 -3 -3 -1 -1 -2 -5 -4 -5 -10 -10 -10 -10 -9 -10 -9 -9 -9 -9 -10 -11 -11 -11 -11
-1 -2 -2 1 2 1 1 2 2 2 1 1 -2 -3 -3 -2 -1 -1 -1 -2 -1 -2 -2 -2 -2 -2 -5 -6 -8 -7 -9 -10 -10 -10 -9 -9 -9 -9 -10 -10 -11 -11 -11 -11
-1 -1 -3 -1 1 1 1 2 2 2 2 1 -3 -4 -6 -6 -3 -2 -2 -2 -2 -3 -3 -3 -4 -4 -6 -5 -7 -9 -8 -9 -9 -9 -9 -9 -10 -10 -10 -11 -11 -11 -10 -11
-1 -2 -2 -1 1 3 2 1 -1 1 2 1 -4 -6 -7 -7 -5 -4 -3 -3 -3 -4 -4 -5 -6 -6 -7 -6 -6 -9 -9 -9 -9 -9 -10 -10 -10 -10 -11 -11 -11 -11 -12 -11
-0 -0 -0 1 2 2 2 -1 -2 1 1 0 -6 -7 -8 -7 -7 -6 -6 -5 -6 -6 -6 -6 -8 -7 -7 -6 -8 -8 -9 -9 -9 -9 -10 -10 -10 -10 -11 -12 -13 -14 -13 -12
1 -1 2 2 1 1 1 -0 -0 0 -1 -3 -5 -7 -6 -7 -7 -6 -7 -7 -6 -6 -7 -7 -8 -8 -7 -8 -8 -8 -9 -9 -9 -10 -10 -10 -11 -11 -12 -14 -15 -15 -14 -13
1 1 1 -1 -2 -2 -0 -1 -2 -1 -1 -6 -7 -7 -7 -6 -7 -6 -7 -6 -7 -7 -7 -7 -7 -6 -9 -9 -8 -9 -9 -10 -10 -10 -11 -11 -11 -12 -14 -15 -14 -14 -14 -13
0 0 -3 -3 -3 -2 -1 -4 -6 -6 -11 -8 -7 -7 -7 -7 -6 -6 -6 -8 -8 -8 -7 -6 -6 -6 -8 -9 -9 -9 -9 -9 -10 -11 -11 -11 -12 -14 -14 -15 -14 -14 -14 -13
0 -1 -3 -3 -3 -4 -5 -8 -9 -9 -9 -7 -8 -7 -8 -6 -6 -7 -6 -7 -8 -8 -7 -9 -8 -9 -9 -9 -9 -9 -10 -10 -11 -11 -12 -12 -13 -14 -14 -14 -14 -14 -14 -14
-1 -1 -3 -3 -6 -6 -6 -7 -9 -9 -8 -7 -6 -6 -9 -8 -6 -7 -8 -9 -9 -8 -9 -9 -11 -9 -10 -10 -10 -10 -11 -11 -11 -11 -12 -12 -13 -14 -14 -14 -14 -14 -14 -14
-1 -3 -5 -6 -7 -8 -7 -7 -8 -9 -8 -7 -8 -7 -7 -8 -7 -8 -9 -10 -10 -11 -11 -10 -12 -9 -10 -10 -10 -11 -11 -11 -12 -12 -12 -13 -13 -14 -14 -14 -14 -14 -14 -14
-4 -3 -4 -7 -8 -8 -8 -8 -7 -8 -8 -8 -10 -9 -9 -9 -11 -11 -11 -11 -12 -11 -11 -12 -10 -10 -10 -11 -12 -13 -13 -12 -12 -12 -12 -13 -13 -14 -14 -13 -13 -13 -14 -14
-7 -8 -9 -9 -9 -8 -8 -8 -7 -7 -8 -11 -12 -10 -13 -12 -12 -12 -12 -12 -12 -12 -11 -10 -10 -11 -12 -13 -13 -13 -13 -12 -12 -12 -12 -13 -13 -13 -13 -13 -13 -13 -14 -14
-8 -8 -9 -9 -10 -9 -8 -8 -7 -7 -11 -10 -11 -14 -13 -13 -14 -12 -14 -13 -13 -10 -11 -11 -11 -12 -13 -13 -13 -13 -12 -12 -12 -12 -12 -13 -13 -13 -13 -13 -13 -14 -13 -14

GFSNW_850_dewp_243.txt.gz
Dewpoint
-9 -11 -11 -10 -4 -1 2 2 2 1 0 -1 -4 -3 -4 -3 -4 -4 -4 -4 -3 -4 -4 -3 -4 -4 -5 -3 -4 -3 -2 -2 0 -2 -6 -5 -2 -1 -2 1 0 3 3 1
-6 -8 -9 -8 -4 -1 3 3 3 2 1 3 -3 -3 -4 -3 -3 -4 -5 -3 -4 -4 -3 1 -4 -5 -3 -3 -4 -5 -5 -3 -0 -1 -3 -5 -4 -4 -4 -2 1 2 2 -0
-3 -5 -7 -7 -3 -0 4 3 3 2 1 -2 -4 -5 -4 -3 -4 -4 -4 -4 -4 -4 -3 -4 -2 -4 -4 -3 -4 -1 -4 -3 -3 1 -1 -4 -2 -4 -5 -4 -0 -1 0 -2
-1 -3 -5 -5 -2 0 3 4 1 2 3 0 -2 -1 -4 -3 -2 -3 -4 -3 -3 -3 -0 -2 -3 -4 -4 -3 -0 -2 -4 -2 -2 -2 -3 -3 -3 -3 -4 -3 -4 -2 -4 -5
0 -1 -3 -3 -1 0 2 4 3 1 -3 -3 -1 -1 1 -1 -4 -3 -3 -3 -3 -3 -2 0 2 -2 -3 -2 -4 -5 -5 -1 -4 -3 -5 -5 -4 -5 -5 -5 -5 -6 -6 -6
1 -1 -2 -1 1 2 3 4 4 5 3 -1 1 3 2 -0 -3 -4 -4 -4 -3 -3 -3 -3 -2 -1 -3 -4 -6 -5 -6 -3 -3 -2 -5 -5 -3 -5 -5 -4 -4 -3 -2 -6
-1 -1 -0 0 2 3 3 3 5 5 5 2 1 3 0 -2 -5 -1 -3 -4 -4 -3 -2 -1 -0 -2 -3 -4 -4 -6 -5 -5 -4 -3 -4 -1 -5 -8 -6 -6 -5 -6 -8 -9
1 -0 -1 0 0 3 4 4 4 5 6 5 4 2 -1 -2 -2 0 -1 -2 -3 -2 -1 1 1 -1 -6 -6 -7 -7 -8 -6 -4 -3 -3 -4 -5 -8 -8 -7 -6 -9 -9 -9
7 5 2 1 2 5 7 7 5 5 6 5 5 4 1 2 2 1 -0 -0 -1 -0 -3 -3 4 3 -0 -0 -4 -7 -7 -7 -5 -2 -1 -0 -6 -10 -10 -10 -5 -9 -9 -10
7 6 6 5 5 5 7 7 7 6 6 6 5 4 3 3 2 2 -0 -1 -0 0 -3 -0 1 1 -4 -1 -2 -4 -4 -5 -3 -3 -1 -3 -8 -10 -9 -4 -5 -9 -10 -10
7 6 6 7 7 7 7 8 7 7 6 6 6 5 4 3 3 3 0 1 -2 -3 -0 -1 -2 -2 -3 -4 -5 -5 -4 -3 -4 -4 -2 -3 -10 -10 -7 -7 -6 -9 -10 -10
6 5 6 6 7 7 7 7 7 7 6 5 5 4 4 4 4 4 2 2 -2 -2 -2 -4 -3 -2 -4 -4 -1 -7 -3 -5 -4 -5 -5 -9 -10 -6 -3 -5 -9 -10 -10 -11
5 5 5 6 6 6 6 6 6 5 5 3 3 3 3 3 3 3 2 1 0 -2 -3 -3 -2 -0 -3 -1 -3 -5 -7 -8 -6 -5 -7 -9 -9 -9 -9 -9 -9 -10 -11 -11
2 4 4 5 5 5 5 5 5 4 4 3 1 1 1 2 2 2 2 2 1 -2 -3 -1 -1 -0 -3 -3 -4 -5 -7 -9 -8 -8 -9 -9 -9 -9 -9 -9 -10 -11 -11 -11
1 2 3 4 4 4 4 4 4 4 4 2 0 -1 -1 -1 0 1 1 0 -0 -1 -1 -1 -1 -2 -4 -4 -5 -4 -8 -8 -8 -6 -9 -9 -10 -9 -9 -10 -10 -11 -11 -13
-1 0 0 3 3 3 3 2 3 3 3 2 -1 -3 -5 -5 -2 -1 -1 -1 -1 -1 -2 -2 -3 -3 -4 -4 -4 -8 -8 -8 -9 -9 -9 -9 -9 -9 -10 -10 -11 -12 -13 -15
-3 -1 -0 1 3 3 2 2 2 3 2 1 -3 -6 -6 -4 -3 -2 -2 -2 -2 -2 -3 -3 -4 -5 -4 -4 -4 -9 -9 -9 -10 -10 -10 -10 -10 -10 -10 -11 -12 -14 -15 -15
-4 -2 -1 -1 1 2 2 1 -1 2 1 1 -4 -6 -7 -5 -5 -4 -3 -3 -3 -4 -4 -4 -7 -6 -5 -5 -8 -9 -9 -9 -9 -9 -10 -10 -10 -10 -11 -12 -14 -15 -15 -15
-2 -1 -0 0 0 1 1 1 1 1 1 0 -3 -4 -4 -6 -6 -5 -6 -5 -6 -6 -6 -6 -7 -7 -7 -7 -8 -9 -9 -9 -9 -10 -10 -10 -10 -11 -12 -13 -14 -14 -15 -15
-2 0 0 0 0 0 1 1 0 0 0 -1 -4 -6 -6 -7 -6 -6 -7 -7 -7 -9 -7 -7 -8 -7 -9 -9 -8 -8 -9 -9 -9 -9 -10 -10 -11 -12 -13 -13 -14 -14 -14 -15
-0 0 -1 -2 -1 -1 -0 -1 -2 -3 -4 -3 -5 -7 -7 -6 -6 -6 -7 -9 -10 -10 -9 -7 -7 -6 -8 -9 -9 -8 -8 -9 -9 -10 -11 -12 -12 -13 -13 -13 -14 -14 -14 -14
-1 -0 -2 -3 -2 -3 -3 -5 -7 -7 -5 -6 -6 -7 -6 -6 -7 -7 -6 -7 -7 -7 -7 -7 -7 -9 -9 -9 -9 -9 -9 -10 -11 -11 -12 -12 -12 -13 -13 -13 -14 -14 -14 -14
-1 -1 -2 -3 -5 -4 -3 -5 -7 -10 -8 -7 -6 -6 -6 -6 -6 -7 -8 -8 -7 -8 -8 -8 -9 -9 -9 -10 -10 -10 -10 -11 -11 -12 -12 -12 -13 -13 -13 -13 -13 -14 -14 -13
-1 -2 -4 -4 -5 -6 -7 -7 -7 -9 -9 -7 -8 -8 -8 -7 -9 -9 -9 -9 -10 -10 -10 -9 -12 -9 -10 -10 -10 -10 -11 -11 -12 -12 -13 -13 -13 -12 -13 -13 -13 -13 -14 -14
-2 -3 -4 -5 -7 -8 -8 -8 -8 -8 -8 -8 -10 -10 -9 -10 -10 -10 -10 -9 -9 -10 -10 -12 -10 -10 -10 -10 -11 -12 -13 -13 -13 -13 -13 -13 -13 -13 -13 -13 -13 -13 -13 -14
-3 -5 -8 -8 -8 -8 -7 -7 -7 -7 -8 -11 -13 -11 -12 -11 -11 -10 -9 -10 -11 -11 -13 -10 -10 -10 -10 -11 -12 -12 -13 -13 -13 -13 -13 -13 -13 -13 -13 -13 -13 -13 -13 -14
-7 -8 -8 -8 -9 -9 -8 -8 -7 -8 -11 -10 -12 -13 -12 -13 -12 -12 -13 -12 -12 -11 -10 -10 -11 -11 -11 -12 -13 -14 -13 -13 -13 -13 -13 -13 -13 -13 -13 -14 -14 -14 -14 -14

GFSNW_850_dewp_246.txt.gz
Dewpoint
-9 -9 -10 -12 -11 -5 -1 2 1 2 0 -1 -4 -3 -4 -4 -4 -4 -3 -4 -4 -3 -4 -2 -3 -4 -5 -4 -5 -4 -2 -2 0 -2 -5 -5 -3 -2 -2 0 -1 -0 1 0
-6 -6 -8 -10 -8 -5 2 3 3 2 1 2 -2 -3 -4 -3 -4 -4 -5 -3 -4 -5 -3 1 -3 -5 -3 -3 -4 -5 -5 -2 0 0 -3 -5 -4 -5 -4 -2 -0 1 1 -1
-1 -3 -5 -7 -7 -2 2 3 3 2 1 -2 -3 -3 -2 -3 -4 -4 -4 -4 -5 -4 -2 -4 -2 -3 -4 -3 -4 -2 -5 -3 -2 2 0 -3 -2 -3 -5 -4 -1 -1 -0 -2
1 -1 -4 -5 -6 -2 1 3 2 2 3 1 -1 -1 -3 -2 -1 -3 -4 -3 -3 -2 0 -1 -2 -4 -5 -3 -0 -2 -4 -1 -2 -3 -3 -3 -2 -2 -3 -2 -3 -2 -3 -4
0 1 -1 -3 -5 -2 1 3 3 2 -3 -2 0 -0 0 -1 -3 -3 -3 -2 -2 -3 -1 1 3 -2 -2 -1 -3 -3 -4 0 -4 -2 -4 -5 -4 -5 -5 -4 -4 -4 -5 -5
1 2 -0 -1 -3 -1 1 2 4 4 1 -1 2 3 2 1 -2 -3 -3 -3 -3 -2 -2 -4 -3 -3 -2 -2 -4 -4 -4 -2 -2 1 -5 -5 -3 -5 -6 -5 -6 -6 -4 -6
1 1 1 0 -0 0 2 1 4 5 3 1 2 3 2 0 -3 -0 -2 -4 -4 -3 -2 -1 -1 -1 -3 -3 -3 -5 -4 -5 -3 -0 -4 -1 -6 -7 -6 -4 -6 -5 -6 -8
3 1 1 1 0 1 2 3 4 4 3 4 4 3 1 -1 -1 -1 -4 -3 -3 -2 -1 2 2 -0 -5 -6 -7 -7 -7 -5 -1 -3 -3 -4 -5 -8 -7 -7 -7 -8 -8 -9
3 3 3 1 1 1 3 2 4 5 5 4 4 4 3 2 1 1 0 1 -1 -1 -2 0 5 4 0 -0 -4 -7 -7 -7 -4 -3 -2 -0 -6 -10 -10 -10 -5 -9 -9 -10
6 5 5 6 6 3 4 2 5 6 6 5 5 4 3 3 3 3 0 -1 -0 -0 -1 3 3 2 -3 0 -1 -3 -4 -5 -4 -3 -3 -3 -7 -11 -8 -4 -5 -9 -7 -9
7 7 7 7 7 7 6 6 7 6 6 6 6 5 5 4 3 3 1 1 -0 -2 2 2 1 -1 -3 -3 -5 -4 -4 -3 -4 -4 -3 -3 -10 -10 -7 -7 -4 -4 -9 -10
6 6 7 6 6 6 7 7 6 7 7 5 5 5 5 5 4 3 1 2 -1 -1 -1 -2 -3 -2 -4 -4 -1 -7 -3 -5 -4 -5 -5 -9 -10 -9 -6 -4 -6 -9 -10 -10
4 5 5 5 6 6 7 7 7 7 5 4 3 3 3 3 3 3 3 2 1 -0 -1 -1 -1 1 -4 -2 -3 -4 -6 -7 -6 -6 -7 -9 -9 -9 -9 -10 -10 -10 -10 -11
2 4 4 5 5 5 5 5 5 5 4 4 -0 1 1 1 2 2 2 2 2 1 0 -0 -0 1 -1 -2 -4 -4 -5 -8 -7 -7 -9 -9 -9 -9 -9 -9 -10 -10 -11 -11
1 1 3 4 4 4 4 4 4 4 4 2 -0 -0 -0 0 0 1 1 1 0 -0 -1 -1 -1 -1 -3 -4 -5 -5 -8 -7 -7 -4 -9 -9 -10 -9 -9 -10 -10 -11 -11 -13
-1 -1 1 3 3 3 4 4 3 3 4 3 0 -3 -4 -3 -2 -1 -1 -1 -1 -0 -1 -2 -2 -2 -3 -3 -4 -7 -7 -8 -9 -9 -9 -9 -9 -9 -10 -10 -11 -12 -13 -15
-2 -0 0 1 3 3 3 3 2 3 3 2 -3 -6 -5 -3 -2 -2 -2 -2 -2 -2 -2 -3 -3 -4 -3 -4 -4 -8 -8 -9 -9 -10 -10 -10 -10 -10 -10 -11 -12 -13 -14 -15
-3 -4 -1 0 2 2 2 2 2 2 2 1 -3 -6 -6 -4 -3 -4 -3 -3 -3 -3 -4 -4 -6 -5 -4 -4 -7 -9 -9 -9 -10 -10 -10 -10 -10 -10 -11 -12 -13 -14 -14 -15
-3 -3 -2 -1 0 1 1 2 2 1 2 0 -2 -4 -3 -5 -5 -5 -5 -5 -5 -6 -5 -6 -6 -7 -5 -7 -8 -8 -9 -9 -9 -9 -10 -10 -10 -10 -12 -13 -13 -14 -14 -14
-1 -0 -0 0 0 0 1 1 0 0 -0 -1 -3 -6 -5 -6 -5 -6 -7 -7 -6 -9 -7 -7 -7 -6 -8 -9 -8 -8 -9 -9 -9 -9 -9 -9 -11 -12 -13 -13 -13 -14 -14 -14
-1 -0 -0 -1 -0 0 0 -0 -1 -2 -3 -3 -4 -7 -7 -6 -5 -5 -5 -6 -9 -9 -9 -7 -8 -7 -8 -9 -9 -9 -9 -8 -9 -10 -10 -11 -12 -13 -13 -13 -13 -13 -14 -14
-0 -1 -2 -2 -1 -2 -2 -4 -6 -7 -4 -5 -6 -6 -6 -5 -5 -6 -6 -7 -8 -7 -8 -6 -7 -8 -9 -9 -9 -9 -9 -10 -10 -11 -12 -12 -12 -13 -13 -13 -13 -13 -13 -14
-1 -1 -2 -3 -4 -4 -3 -4 -7 -7 -7 -6 -6 -6 -6 -5 -6 -7 -8 -8 -7 -8 -7 -7 -8 -9 -9 -9 -9 -10 -10 -10 -11 -11 -12 -12 -12 -13 -13 -13 -13 -13 -13 -14
-1 -2 -4 -5 -5 -6 -6 -6 -6 -7 -8 -6 -6 -7 -7 -7 -8 -9 -8 -8 -9 -8 -9 -8 -11 -9 -9 -10 -10 -10 -10 -11 -12 -12 -13 -13 -13 -13 -13 -13 -13 -13 -13 -14
-2 -3 -4 -5 -6 -7 -7 -8 -8 -8 -7 -7 -9 -10 -9 -10 -10 -10 -10 -9 -8 -8 -8 -10 -11 -9 -10 -10 -10 -11 -12 -12 -13 -13 -13 -13 -13 -13 -13 -13 -13 -13 -14 -14
-2 -4 -8 -8 -8 -8 -7 -7 -8 -8 -7 -9 -12 -11 -11 -10 -10 -10 -9 -9 -9 -10 -12 -11 -10 -10 -10 -10 -11 -12 -12 -13 -13 -13 -13 -13 -13 -13 -13 -14 -14 -14 -14 -14
-6 -8 -8 -8 -9 -9 -8 -8 -8 -8 -10 -9 -11 -11 -11 -12 -12 -11 -11 -11 -12 -12 -10 -10 -10 -10 -11 -11 -12 -13 -14 -13 -13 -13 -13 -13 -13 -14 -14 -14 -14 -14 -14 -14

GFSNW_850_dewp_252.txt.gz
Dewpoint
-6 -8 -8 -8 -10 -13 -10 -2 2 1 1 0 -3 -1 -4 -4 -3 -4 -3 -4 -3 -1 -2 1 -0 -3 -4 -4 -5 -3 -3 -2 2 -1 -5 -5 -4 -4 -3 1 1 -0 2 -1
-4 -5 -4 -5 -8 -10 -5 0 2 2 1 4 -1 -3 -3 -3 -3 -4 -3 -2 -3 -5 -1 2 -1 -3 -4 -3 -4 -3 -3 0 5 3 -3 -5 -3 -3 -3 -2 -2 1 1 -4
-1 -3 -2 -2 -5 -8 -4 1 4 2 -1 -2 -2 -2 -2 -1 -4 -4 -4 -3 -4 -3 -0 -3 0 -2 -3 -3 -4 -5 -4 -1 3 5 3 -1 1 0 -2 -2 1 -0 -1 -4
2 -0 -1 -1 -3 -7 -4 1 2 2 5 1 -2 -0 -1 -1 -1 -3 -4 -3 -2 -1 2 1 0 -2 -4 -3 -2 -2 -4 1 -0 -1 -2 -2 -1 -0 -0 0 -1 1 -3 -4
5 1 -0 -0 -1 -4 -4 1 2 1 -1 -1 2 1 -0 1 -1 -2 -1 -2 -2 -2 2 2 4 -0 -2 1 -1 -2 -3 2 -1 1 -0 -1 -1 -2 -2 -2 -2 -2 -3 -3
5 5 1 0 1 -2 -2 -1 2 3 1 1 3 4 2 1 -1 -2 -1 -2 -1 -1 -2 -2 -3 -2 -2 -1 -1 -1 -2 0 1 3 -4 -3 0 -3 -3 -4 -5 -5 -5 -7
4 6 4 1 1 -0 -2 -0 2 4 3 2 3 3 2 2 -0 2 -2 -3 -2 -2 -2 -1 -1 -1 -3 -2 -4 -4 -2 -1 1 2 -2 3 -5 -7 -7 -6 -7 -6 -7 -7
2 5 4 3 1 1 -0 -0 2 4 4 3 3 3 3 1 0 -1 -2 -2 -3 -2 -1 3 4 3 -1 -5 -7 -6 -5 -2 2 3 -0 -2 -5 -6 -6 -5 -6 -8 -7 -7
3 3 4 3 3 2 2 0 2 3 3 3 1 4 3 4 3 2 0 -1 -2 -2 1 3 6 7 4 1 -4 -7 -6 -4 2 -2 1 1 -6 -9 -10 -9 -6 -9 -8 -7
5 4 3 3 3 3 3 1 1 4 4 1 2 4 4 4 3 5 1 0 -1 -1 2 4 5 5 0 3 1 -3 -2 -2 0 0 1 -3 -7 -10 -9 -5 -6 -9 -7 -4
7 7 8 6 3 3 4 3 1 3 4 2 3 3 3 4 4 5 2 2 1 0 3 4 4 4 1 1 -2 -4 -3 -2 -2 -2 -0 0 -9 -9 -6 -7 -6 -5 -6 -8
7 7 7 7 5 4 5 5 4 4 5 4 4 4 4 4 4 4 3 3 1 1 3 2 2 2 -1 1 3 -6 -1 -5 -2 -3 -3 -9 -9 -9 -9 -6 -5 -8 -9 -10
4 6 7 7 7 7 6 6 6 6 6 5 5 5 5 5 5 5 4 3 3 2 2 1 1 2 -0 1 -0 -3 -6 -7 -4 -4 -5 -7 -9 -10 -9 -9 -9 -10 -10 -10
3 4 4 6 7 7 6 6 6 6 5 5 1 3 2 3 3 4 4 3 3 2 1 1 0 2 -0 1 -2 -3 -4 -6 -4 -3 -4 -8 -8 -9 -9 -9 -10 -10 -10 -11
2 2 3 4 5 6 6 6 6 6 6 3 -2 -1 -0 0 1 1 1 2 2 1 0 -0 1 -0 -0 -2 -2 -1 -5 -5 -2 -1 -7 -8 -9 -9 -9 -10 -10 -10 -11 -12
1 2 2 3 3 4 4 4 5 5 5 4 -1 -3 -2 -1 -1 0 0 1 1 1 -0 -0 -1 -1 -1 -1 -1 -5 -5 -6 -7 -8 -9 -9 -9 -10 -10 -10 -10 -11 -12 -13
0 0 1 2 2 3 3 3 3 3 4 2 -4 -4 -3 -2 -2 -2 -2 -1 -1 -1 -1 -2 -2 -2 -2 -1 -1 -7 -7 -7 -7 -8 -8 -10 -10 -10 -10 -10 -11 -12 -13 -14
-0 -0 -0 0 0 1 1 2 2 2 2 2 -2 -4 -4 -3 -3 -3 -3 -2 -2 -3 -3 -4 -4 -4 -3 -2 -5 -8 -8 -9 -9 -10 -10 -10 -10 -10 -10 -11 -12 -13 -14 -14
-0 -0 -0 -1 -0 -0 0 0 1 1 1 -0 -2 -2 -2 -4 -4 -4 -4 -3 -3 -5 -4 -5 -5 -5 -3 -5 -7 -8 -8 -9 -10 -10 -10 -10 -10 -10 -11 -12 -13 -13 -13 -14
-1 -1 -1 -1 -1 -1 -0 -0 -0 0 0 -0 -2 -5 -4 -4 -4 -4 -4 -5 -4 -4 -7 -6 -5 -5 -7 -8 -8 -8 -9 -9 -9 -10 -9 -9 -10 -11 -12 -13 -13 -13 -14 -13
-1 -1 -1 -1 -1 -1 -1 -1 -1 -2 -1 -2 -5 -6 -5 -5 -3 -4 -4 -4 -6 -5 -7 -6 -6 -6 -8 -9 -8 -9 -9 -9 -9 -9 -9 -10 -11 -12 -13 -13 -13 -13 -13 -13
-1 -1 -1 -1 -1 -1 -1 -4 -4 -3 -1 -4 -4 -5 -5 -5 -4 -5 -5 -5 -6 -4 -7 -6 -6 -8 -9 -9 -9 -9 -9 -9 -9 -10 -11 -12 -12 -12 -13 -14 -13 -13 -13 -14
-1 -1 -1 -2 -3 -2 -1 -1 -3 -4 -5 -5 -5 -5 -5 -5 -5 -6 -6 -5 -5 -7 -6 -6 -8 -9 -9 -9 -9 -9 -9 -10 -11 -11 -12 -12 -12 -14 -14 -13 -13 -14 -14 -14
-2 -2 -3 -3 -3 -3 -3 -4 -4 -6 -6 -5 -6 -6 -5 -6 -6 -7 -5 -7 -8 -6 -6 -7 -8 -9 -9 -9 -9 -10 -10 -11 -11 -12 -12 -13 -14 -14 -13 -13 -14 -14 -14 -14
-2 -2 -2 -4 -7 -7 -7 -8 -7 -7 -6 -6 -7 -7 -7 -7 -7 -8 -8 -8 -7 -7 -7 -8 -12 -10 -9 -9 -10 -10 -10 -11 -12 -12 -13 -14 -13 -13 -14 -14 -14 -14 -14 -14
-3 -5 -6 -7 -7 -8 -8 -8 -7 -6 -6 -5 -6 -8 -6 -6 -7 -8 -7 -7 -7 -8 -9 -12 -10 -9 -9 -10 -10 -10 -12 -12 -13 -14 -14 -14 -14 -14 -14 -14 -14 -14 -14 -14
-5 -8 -7 -7 -7 -7 -7 -8 -7 -6 -7 -6 -6 -6 -6 -10 -8 -8 -9 -8 -9 -12 -12 -10 -10 -10 -10 -10 -11 -12 -12 -14 -14 -14 -14 -14 -14 -14 -15 -15 -14 -14 -14 -14

GFSNW_850_dewp_258.txt.gz
Dewpoint
4 4 3 -3 -6 -7 -10 -3 5 2 1 3 1 3 -3 -4 -3 -3 -3 -2 -1 0 1 1 0 -1 -2 -5 -4 -1 -2 1 3 1 -4 -5 -4 -2 -3 2 3 2 2 3
4 5 5 -0 -3 -3 -6 2 2 2 1 6 3 -2 -2 -3 -3 -3 -2 -1 -1 -3 1 3 -0 -1 -3 -4 -4 -1 -2 1 5 2 -2 -4 -2 -3 -3 -2 -0 2 5 3
7 4 6 3 -2 -1 -4 2 5 4 1 2 1 -0 -0 -0 -3 -3 -2 -2 -2 -1 1 -0 1 -0 -2 -4 -3 -5 -2 2 4 5 4 2 3 -0 -2 -1 4 2 2 0
7 6 5 5 1 1 -2 2 2 3 6 3 0 -0 0 1 0 -2 -3 -1 -1 1 3 2 2 0 -1 -2 -2 -3 -3 1 2 2 2 2 2 2 1 2 2 4 2 1
7 7 4 6 3 2 2 4 2 1 2 1 1 1 1 2 1 -2 -2 -1 -0 0 3 3 3 1 -0 -0 -1 -2 -3 3 1 3 1 1 2 1 1 1 1 1 1 1
6 7 6 5 6 3 4 2 -1 2 2 2 2 3 2 2 0 -1 -0 -2 0 1 0 -1 -1 -1 -1 -1 -0 -0 -1 1 2 4 -1 -1 2 0 -0 -1 -1 -1 1 -3
3 6 7 5 6 5 3 3 1 4 5 3 3 3 2 2 1 2 -1 -1 1 -0 -1 -1 -1 -2 -2 -2 -3 -2 -0 1 2 4 2 4 -1 -8 -6 -4 -3 -3 -5 -6
2 3 6 7 5 6 5 4 2 5 5 2 1 3 3 2 0 0 -1 -2 -1 -1 0 3 4 4 1 -2 -6 -4 -3 0 3 4 3 1 -0 -6 -6 -6 -6 -7 -6 -7
2 2 4 6 7 5 6 5 3 3 6 4 -0 3 3 4 3 1 -0 -2 -1 -1 2 4 7 7 5 1 -4 -7 -4 -3 3 4 4 4 -4 -7 -9 -9 -4 -8 -8 -7
2 2 3 5 6 6 5 6 4 3 5 3 0 3 4 4 4 4 1 -1 -1 0 2 5 6 6 3 3 2 -2 -1 1 1 2 4 2 -7 -9 -9 -4 -4 -8 -8 -5
2 1 2 3 5 6 5 6 5 4 3 3 1 3 3 3 4 5 1 2 1 0 4 5 4 5 3 4 1 -2 1 1 1 1 3 2 -9 -8 -5 -6 -8 -8 -6 -6
1 2 1 2 3 5 6 5 6 4 4 4 2 1 3 3 3 4 2 4 2 1 3 3 3 4 2 3 5 -3 3 1 2 0 -0 -8 -9 -7 -7 -6 -5 -6 -7 -8
1 1 1 1 2 4 6 5 6 5 5 4 4 3 1 2 3 4 3 3 3 2 3 3 3 4 1 3 2 -1 -3 -3 -2 -3 -4 -8 -8 -8 -8 -9 -9 -9 -9 -9
0 1 1 1 1 3 5 6 5 5 5 4 4 3 3 3 2 3 3 3 3 3 3 2 2 3 1 2 1 1 -1 -4 -3 -2 -3 -6 -7 -9 -8 -9 -9 -9 -10 -11
0 1 1 1 1 2 4 6 5 5 5 4 2 3 3 4 4 4 4 4 4 3 2 1 1 1 1 -0 -0 1 -4 -4 1 2 -6 -6 -8 -8 -8 -9 -9 -10 -11 -11
0 0 1 1 2 2 4 5 5 6 5 4 1 -0 0 1 2 2 3 3 3 3 1 0 0 0 1 0 1 -2 -3 -5 -4 -7 -7 -7 -8 -9 -9 -9 -10 -11 -11 -12
-0 0 0 1 1 1 3 2 2 4 5 5 -1 -3 -3 -1 -0 -0 -0 -0 0 1 0 -0 -1 -1 -0 0 1 -6 -6 -5 -6 -7 -7 -9 -9 -9 -10 -10 -11 -11 -12 -14
-0 -0 -0 -0 0 0 0 1 1 1 3 3 -2 -3 -3 -2 -2 -2 -2 -2 -1 -1 -1 -2 -1 -2 -2 -1 -5 -7 -7 -8 -8 -8 -8 -9 -9 -10 -10 -10 -11 -12 -13 -13
-0 -0 -0 -1 -0 -0 -0 -0 -0 0 1 -1 -2 -2 -1 -3 -3 -3 -3 -2 -1 -3 -2 -2 -2 -2 -2 -4 -7 -7 -8 -8 -9 -9 -10 -10 -10 -10 -10 -11 -12 -13 -13 -14
-1 -1 -1 -1 -1 -1 -1 -1 -0 -0 -1 -1 -2 -3 -3 -3 -3 -3 -3 -3 -3 -2 -4 -4 -3 -3 -7 -7 -7 -7 -8 -9 -9 -10 -10 -10 -10 -10 -11 -12 -13 -13 -14 -14
-1 -1 -1 -1 -2 -1 -1 -1 -0 -1 -1 -3 -4 -3 -4 -4 -2 -3 -3 -2 -3 -1 -4 -3 -3 -4 -8 -8 -8 -8 -8 -9 -9 -9 -10 -10 -9 -10 -12 -13 -13 -14 -14 -14
-1 -1 -1 -1 -1 -1 -1 -1 -2 -1 -2 -3 -3 -4 -4 -4 -3 -3 -3 -3 -4 -2 -6 -4 -4 -6 -9 -9 -9 -9 -9 -9 -9 -9 -9 -10 -11 -12 -12 -13 -14 -14 -14 -14
-1 -1 -1 -1 -2 -0 0 -1 -2 -2 -4 -5 -4 -4 -4 -4 -4 -4 -3 -3 -3 -6 -5 -4 -6 -8 -9 -9 -9 -9 -9 -9 -9 -10 -11 -12 -12 -12 -14 -14 -14 -14 -14 -15
-1 -1 -1 -1 -2 -2 -4 -3 -4 -5 -4 -4 -4 -5 -4 -5 -4 -4 -4 -6 -5 -4 -4 -5 -7 -9 -9 -9 -9 -9 -10 -10 -11 -11 -12 -12 -13 -14 -14 -14 -14 -14 -15 -15
-2 -1 -1 -3 -6 -6 -6 -6 -5 -5 -4 -4 -4 -4 -5 -5 -5 -6 -6 -5 -4 -5 -5 -6 -8 -9 -9 -9 -9 -9 -10 -11 -11 -12 -12 -13 -14 -14 -14 -14 -14 -15 -15 -14
-4 -5 -5 -6 -5 -6 -6 -6 -6 -5 -4 -4 -5 -4 -4 -5 -6 -6 -4 -4 -4 -5 -8 -10 -9 -9 -9 -9 -9 -10 -11 -11 -12 -12 -13 -14 -14 -14 -14 -14 -15 -15 -14 -14
-5 -6 -6 -5 -6 -6 -6 -5 -6 -5 -4 -5 -5 -5 -6 -8 -7 -6 -6 -6 -7 -8 -10 -10 -10 -10 -9 -9 -10 -10 -11 -12 -12 -14 -14 -14 -14 -14 -14 -16 -16 -15 -14 -14

GFSNW_850_dewp_264.txt.gz
Dewpoint
2 4 5 6 7 4 4 -0 5 -1 3 -0 -0 1 2 -2 -3 -3 -4 -3 -2 0 1 2 1 -0 -2 -4 -3 -1 -1 -0 2 0 -4 -5 -3 -1 -3 1 1 0 -0 1
2 3 4 5 7 6 6 -1 -1 1 -1 3 2 1 -2 -3 -2 -2 -2 -2 -1 -1 1 2 -0 -2 -3 -4 -3 -1 -1 2 4 3 0 -3 -3 -3 -3 -2 -1 1 1 2
1 2 3 5 6 7 6 -1 3 5 1 2 2 1 -1 -2 -3 -2 -2 -1 -2 -0 1 0 0 -1 -3 -4 -3 -2 -1 2 3 3 2 0 0 -2 -2 -2 2 1 1 0
1 2 2 3 5 5 6 2 2 3 6 3 2 -1 -0 -0 -1 -2 -2 -1 -1 1 2 2 1 -1 -2 -3 -3 -4 -1 3 1 2 2 2 2 2 -1 -1 -1 3 2 1
-1 1 2 2 3 3 5 2 0 2 2 2 2 2 1 1 -1 -2 -1 0 -0 -0 2 1 2 -0 -1 -1 -1 -3 -3 2 1 3 2 1 2 2 2 1 -0 -1 0 1
-2 -2 1 2 2 2 4 5 1 2 2 1 2 2 1 -0 -1 -2 -3 -2 -0 -0 0 0 -0 -1 -2 -1 -1 -1 -1 1 2 4 0 1 3 2 1 1 1 2 3 1
-2 -2 -0 1 2 1 0 2 4 2 1 1 2 1 1 1 0 -1 -2 -2 -1 -1 -1 -1 -1 -1 -2 -2 -3 -2 -0 2 3 4 2 6 -0 -7 -1 -0 -1 -0 -2 -5
-3 -3 -2 1 1 1 0 0 2 3 2 -2 -2 1 2 2 1 -0 -0 -1 -1 -1 0 3 4 3 3 -1 -6 -5 -2 2 4 4 4 2 1 -5 -4 -1 -2 -4 -1 -6
-3 -4 -2 -0 1 1 0 0 0 1 3 2 -1 -1 -1 2 1 0 -1 -1 -1 0 2 3 5 6 4 2 -2 -5 -3 0 4 3 5 4 -0 -6 -8 -8 -1 -8 -6 -7
-3 -4 -1 -0 0 1 0 0 1 0 4 2 0 2 2 1 1 1 -1 -1 -1 1 2 3 4 5 1 2 1 -0 0 1 4 4 4 3 -2 -8 -9 0 -1 -8 -7 -7
-3 -4 -1 -1 -0 0 0 1 1 1 1 4 2 1 2 3 1 2 -0 0 -0 0 3 3 3 3 3 1 -1 -0 1 2 2 3 4 4 -7 -8 -4 -5 -8 -8 -7 -6
-3 -4 -2 -1 -1 -0 0 0 0 0 1 3 4 2 0 1 2 1 -1 1 -0 0 2 1 1 4 2 2 4 -3 1 -0 0 0 1 -6 -8 -8 -8 -8 -8 -7 -7 -7
-3 -4 -2 -1 -1 -0 0 1 1 1 0 2 4 3 2 -0 1 2 0 1 1 0 2 1 0 3 2 4 3 -0 -2 -2 -0 -1 -3 -7 -8 -7 -8 -7 -7 -7 -6 -7
-2 -4 -2 -1 -1 -0 -0 0 0 1 0 1 4 4 3 2 1 3 3 2 2 1 2 1 2 2 1 1 1 2 -1 -2 -0 -0 -4 -6 -8 -7 -7 -6 -7 -7 -8 -9
-3 -6 -2 -1 -1 -0 -0 0 0 1 1 1 1 1 4 3 1 1 2 3 2 2 2 1 2 1 1 0 -0 1 -2 -0 2 3 -1 -0 -2 -7 -3 -6 -8 -9 -9 -10
-3 -3 -2 -1 -1 -1 -0 0 0 1 1 0 1 0 1 2 3 3 3 3 3 3 2 1 2 2 2 3 3 1 0 -1 -0 -1 -1 0 -0 -4 -4 -8 -8 -9 -11 -11
-4 -5 -1 -1 -1 -0 0 -0 0 1 1 0 -0 -2 -2 -0 1 1 1 2 3 3 3 1 0 0 2 1 5 -4 -4 -5 -3 -1 -0 -5 -5 -6 -8 -7 -10 -11 -11 -13
-6 -4 -1 -1 -2 -0 -0 -0 -0 -0 0 -0 -0 -4 -3 -1 -1 -2 -0 -0 1 0 1 -1 -1 -1 -1 1 -3 -7 -7 -3 -3 -2 -1 -1 -4 -6 -8 -10 -11 -11 -12 -13
-4 -3 -1 -1 -1 -0 -0 -1 -1 -1 -0 -1 -3 -2 -2 -3 -3 -3 -2 -1 -0 -2 -1 -1 -1 -2 0 -2 -5 -5 -5 -3 -5 -4 -4 -5 -6 -9 -10 -11 -11 -12 -13 -13
-3 -1 -1 -1 -1 -1 -1 -2 -1 -2 -2 -2 -2 -3 -3 -3 -3 -3 -3 -2 -3 -2 -3 -3 -2 -1 -6 -6 -5 -4 -5 -4 -4 -6 -9 -8 -10 -11 -11 -11 -12 -13 -13 -15
-1 -1 -2 -1 -2 -2 -2 -2 -2 -2 -3 -3 -3 -4 -4 -3 -2 -3 -2 -2 -3 -2 -3 -2 -2 -3 -7 -7 -6 -5 -5 -5 -6 -5 -6 -8 -10 -11 -11 -12 -13 -13 -15 -15
-2 -1 -2 -2 -2 -2 -2 -2 -2 -2 -3 -4 -4 -4 -4 -3 -3 -3 -3 -3 -3 -2 -4 -3 -2 -7 -8 -8 -8 -7 -7 -7 -7 -9 -10 -10 -10 -11 -12 -13 -13 -15 -15 -15
-2 -2 -2 -2 -2 -1 -1 -1 -2 -4 -4 -5 -4 -4 -4 -4 -3 -4 -3 -4 -4 -5 -3 -4 -6 -8 -9 -9 -9 -9 -8 -9 -10 -10 -10 -10 -11 -12 -13 -14 -15 -15 -15 -15
-2 -2 -2 -3 -2 -5 -5 -5 -5 -5 -4 -4 -4 -5 -4 -4 -4 -4 -5 -5 -5 -4 -3 -4 -7 -9 -9 -9 -9 -9 -10 -9 -9 -10 -11 -12 -12 -13 -14 -14 -14 -15 -15 -15
-3 -4 -5 -6 -7 -6 -6 -6 -5 -5 -4 -4 -4 -4 -4 -5 -5 -5 -5 -4 -4 -4 -4 -7 -9 -9 -10 -10 -10 -10 -10 -10 -11 -12 -12 -13 -14 -15 -15 -15 -15 -15 -15 -15
-5 -8 -6 -6 -5 -6 -7 -6 -6 -5 -4 -4 -4 -4 -4 -5 -5 -4 -4 -3 -4 -6 -8 -9 -9 -9 -10 -10 -10 -10 -10 -11 -12 -12 -12 -14 -15 -14 -14 -14 -15 -16 -15 -15
-7 -7 -8 -8 -7 -8 -7 -7 -7 -6 -5 -5 -6 -5 -6 -7 -6 -6 -8 -7 -9 -10 -10 -10 -9 -9 -10 -10 -10 -10 -11 -11 -12 -12 -14 -14 -14 -14 -14 -15 -16 -16 -15 -14